Observation data for Persimmon Gap on 12/10/2018      Previous  Date       Current Mesonet Observations  Soil Data  Daily Summary Page  Observations in Plain Language
KPG1 100601Z 01015KT 07/03 A3038 RMK A01 T00700030  RH  076%=      5-min Rain = 0
KPG1 100602Z 01015KT 07/03 A3038 RMK A01 T00690029  RH  076%=      5-min Rain = 0
KPG1 100603Z 00016KT 07/03 A3038 RMK A01 T00690029  RH  075%=      5-min Rain = 0
KPG1 100604Z 00014KT 07/03 A3038 RMK A01 T00690029  RH  075%=      5-min Rain = 0
KPG1 100605Z 00015KT 07/03 A3038 RMK A01 T00690029  RH  076%=      5-min Rain = 0
KPG1 100606Z 01016KT 07/03 A3038 RMK A01 T00690029  RH  076%=      5-min Rain = 0
KPG1 100607Z 01015G20KT 07/03 A3038 RMK A01 T00690029  RH  076%=      5-min Rain = 0
KPG1 100608Z 01017KT 07/03 A3038 RMK A01 T00690029  RH  075%=      5-min Rain = 0
KPG1 100609Z 01017KT 07/03 A3038 RMK A01 T00690029  RH  075%=      5-min Rain = 0
KPG1 100610Z 00016KT 07/03 A3038 RMK A01 T00690028  RH  075%=      5-min Rain = 0
KPG1 100611Z 01016KT 07/03 A3038 RMK A01 T00690029  RH  076%=      5-min Rain = 0
KPG1 100612Z 01016KT 07/03 A3038 RMK A01 T00690029  RH  076%=      5-min Rain = 0
KPG1 100613Z 02016KT 07/03 A3038 RMK A01 T00680028  RH  076%=      5-min Rain = 0
KPG1 100614Z 01015KT 07/03 A3038 RMK A01 T00680029  RH  076%=      5-min Rain = 0
KPG1 100615Z 01016KT 07/03 A3038 RMK A01 T00680028  RH  076%=      5-min Rain = 0
KPG1 100616Z 01016KT 07/03 A3038 RMK A01 T00680028  RH  076%=      5-min Rain = 0
KPG1 100617Z 01017KT 07/03 A3038 RMK A01 T00680028  RH  076%=      5-min Rain = 0
KPG1 100618Z 01015KT 07/03 A3038 RMK A01 T00680028  RH  076%=      5-min Rain = 0
KPG1 100619Z 01015KT 07/03 A3038 RMK A01 T00670028  RH  076%=      5-min Rain = 0
KPG1 100620Z 01016KT 07/03 A3038 RMK A01 T00670028  RH  076%=      5-min Rain = 0
KPG1 100621Z 01016KT 07/03 A3038 RMK A01 T00670028  RH  076%=      5-min Rain = 0
KPG1 100622Z 01014KT 07/03 A3038 RMK A01 T00670028  RH  076%=      5-min Rain = 0
KPG1 100623Z 00016KT 07/03 A3038 RMK A01 T00670028  RH  076%=      5-min Rain = 0
KPG1 100624Z 01015KT 07/03 A3038 RMK A01 T00670027  RH  076%=      5-min Rain = 0
KPG1 100625Z 01015KT 07/03 A3038 RMK A01 T00670028  RH  076%=      5-min Rain = 0
KPG1 100626Z 01015KT 07/03 A3038 RMK A01 T00670028  RH  076%=      5-min Rain = 0
KPG1 100627Z 01015KT 07/03 A3038 RMK A01 T00670028  RH  076%=      5-min Rain = 0
KPG1 100628Z 01014KT 07/03 A3038 RMK A01 T00670028  RH  076%=      5-min Rain = 0
KPG1 100629Z 01014KT 07/03 A3038 RMK A01 T00670028  RH  076%=      5-min Rain = 0
KPG1 100630Z 01015KT 07/03 A3038 RMK A01 T00660027  RH  076%=      5-min Rain = 0
KPG1 100631Z 00016KT 07/03 A3038 RMK A01 T00660027  RH  076%=      5-min Rain = 0
KPG1 100632Z 01015KT 07/03 A3038 RMK A01 T00660027  RH  076%=      5-min Rain = 0
KPG1 100633Z 01014KT 07/03 A3038 RMK A01 T00660027  RH  076%=      5-min Rain = 0
KPG1 100634Z 01014KT 07/03 A3038 RMK A01 T00660027  RH  076%=      5-min Rain = 0
KPG1 100635Z 01015KT 07/03 A3038 RMK A01 T00660027  RH  076%=      5-min Rain = 0
KPG1 100636Z 00015KT 07/03 A3038 RMK A01 T00660028  RH  076%=      5-min Rain = 0
KPG1 100637Z 01015KT 07/03 A3038 RMK A01 T00660027  RH  076%=      5-min Rain = 0
KPG1 100638Z 01015KT 07/03 A3038 RMK A01 T00660027  RH  076%=      5-min Rain = 0
KPG1 100639Z 01015KT 07/03 A3038 RMK A01 T00660027  RH  076%=      5-min Rain = 0
KPG1 100640Z 01012KT 07/03 A3038 RMK A01 T00660026  RH  076%=      5-min Rain = 0
KPG1 100641Z 01015KT 07/03 A3037 RMK A01 T00660027  RH  076%=      5-min Rain = 0
KPG1 100642Z 01014KT 07/03 A3037 RMK A01 T00660027  RH  076%=      5-min Rain = 0
KPG1 100643Z 01014KT 07/03 A3037 RMK A01 T00660026  RH  076%=      5-min Rain = 0
KPG1 100644Z 01015KT 07/03 A3037 RMK A01 T00660026  RH  076%=      5-min Rain = 0
KPG1 100645Z 01014KT 07/03 A3037 RMK A01 T00660025  RH  075%=      5-min Rain = 0
KPG1 100646Z 01015KT 07/03 A3037 RMK A01 T00660026  RH  076%=      5-min Rain = 0
KPG1 100647Z 00016KT 07/03 A3037 RMK A01 T00660026  RH  076%=      5-min Rain = 0
KPG1 100648Z 01014KT 07/03 A3037 RMK A01 T00660026  RH  076%=      5-min Rain = 0
KPG1 100649Z 01014KT 07/03 A3037 RMK A01 T00650025  RH  076%=      5-min Rain = 0
KPG1 100650Z 01015KT 07/03 A3037 RMK A01 T00660026  RH  076%=      5-min Rain = 0
KPG1 100651Z 01013KT 07/03 A3037 RMK A01 T00660025  RH  076%=      5-min Rain = 0
KPG1 100652Z 01014KT 07/03 A3037 RMK A01 T00650025  RH  076%=      5-min Rain = 0
KPG1 100653Z 01014KT 07/03 A3037 RMK A01 T00650025  RH  076%=      5-min Rain = 0
KPG1 100654Z 01015KT 07/03 A3037 RMK A01 T00650025  RH  075%=      5-min Rain = 0
KPG1 100655Z 01016KT 07/02 A3037 RMK A01 T00660024  RH  075%=      5-min Rain = 0
KPG1 100656Z 01015KT 07/03 A3037 RMK A01 T00660025  RH  075%=      5-min Rain = 0
KPG1 100657Z 01015KT 07/03 A3037 RMK A01 T00660025  RH  075%=      5-min Rain = 0
KPG1 100658Z 01016KT 07/03 A3037 RMK A01 T00660025  RH  075%=      5-min Rain = 0
KPG1 100659Z 01016KT 07/03 A3037 RMK A01 T00660025  RH  075%=      5-min Rain = 0
KPG1 100700Z 01014KT 07/03 A3037 RMK A01 T00650025  RH  075%=      5-min Rain = 0
KPG1 100701Z 01016KT 07/03 A3037 RMK A01 T00650025  RH  075%=      5-min Rain = 0
KPG1 100702Z 01014KT 07/02 A3037 RMK A01 T00650024  RH  075%=      5-min Rain = 0
KPG1 100703Z 01017KT 06/02 A3037 RMK A01 T00640024  RH  075%=      5-min Rain = 0
KPG1 100704Z 01014KT 06/02 A3037 RMK A01 T00640024  RH  075%=      5-min Rain = 0
KPG1 100705Z 01014KT 06/02 A3037 RMK A01 T00640024  RH  075%=      5-min Rain = 0
KPG1 100706Z 01014KT 06/02 A3037 RMK A01 T00640024  RH  075%=      5-min Rain = 0
KPG1 100707Z 01015KT 06/02 A3037 RMK A01 T00640024  RH  075%=      5-min Rain = 0
KPG1 100708Z 01015KT 06/02 A3037 RMK A01 T00640024  RH  075%=      5-min Rain = 0
KPG1 100709Z 01017KT 06/02 A3037 RMK A01 T00640023  RH  075%=      5-min Rain = 0
KPG1 100710Z 01016KT 06/02 A3037 RMK A01 T00640023  RH  075%=      5-min Rain = 0
KPG1 100711Z 01015KT 06/02 A3037 RMK A01 T00640023  RH  075%=      5-min Rain = 0
KPG1 100712Z 01016KT 06/02 A3037 RMK A01 T00640022  RH  075%=      5-min Rain = 0
KPG1 100713Z 01014KT 07/02 A3037 RMK A01 T00650022  RH  074%=      5-min Rain = 0
KPG1 100714Z 01014KT 07/02 A3037 RMK A01 T00650023  RH  074%=      5-min Rain = 0
KPG1 100715Z 01015KT 07/02 A3037 RMK A01 T00650023  RH  074%=      5-min Rain = 0
KPG1 100716Z 01017KT 07/02 A3036 RMK A01 T00650022  RH  074%=      5-min Rain = 0
KPG1 100717Z 01014KT 07/02 A3037 RMK A01 T00650022  RH  074%=      5-min Rain = 0
KPG1 100718Z 01015KT 07/02 A3037 RMK A01 T00650023  RH  074%=      5-min Rain = 0
KPG1 100719Z 01014KT 07/02 A3037 RMK A01 T00650022  RH  074%=      5-min Rain = 0
KPG1 100720Z 01016KT 07/02 A3037 RMK A01 T00650022  RH  074%=      5-min Rain = 0
KPG1 100721Z 01015KT 07/02 A3037 RMK A01 T00650022  RH  074%=      5-min Rain = 0
KPG1 100722Z 01014KT 07/02 A3037 RMK A01 T00650022  RH  074%=      5-min Rain = 0
KPG1 100723Z 01013KT 07/02 A3037 RMK A01 T00660022  RH  074%=      5-min Rain = 0
KPG1 100724Z 00015KT 07/02 A3037 RMK A01 T00660022  RH  074%=      5-min Rain = 0
KPG1 100725Z 01016KT 07/02 A3037 RMK A01 T00650022  RH  074%=      5-min Rain = 0
KPG1 100726Z 01014KT 07/02 A3037 RMK A01 T00660021  RH  073%=      5-min Rain = 0
KPG1 100727Z 01016KT 07/02 A3037 RMK A01 T00660022  RH  073%=      5-min Rain = 0
KPG1 100728Z 01015KT 07/02 A3037 RMK A01 T00660022  RH  073%=      5-min Rain = 0
KPG1 100729Z 01017KT 07/02 A3037 RMK A01 T00660022  RH  073%=      5-min Rain = 0
KPG1 100730Z 01016KT 07/02 A3037 RMK A01 T00660021  RH  073%=      5-min Rain = 0
KPG1 100731Z 01014KT 07/02 A3037 RMK A01 T00660021  RH  073%=      5-min Rain = 0
KPG1 100732Z 00015KT 07/02 A3037 RMK A01 T00660021  RH  073%=      5-min Rain = 0
KPG1 100733Z 01016KT 07/02 A3037 RMK A01 T00660022  RH  073%=      5-min Rain = 0
KPG1 100734Z 01016KT 07/02 A3037 RMK A01 T00660021  RH  073%=      5-min Rain = 0
KPG1 100735Z 01016KT 07/02 A3037 RMK A01 T00670022  RH  073%=      5-min Rain = 0
KPG1 100736Z 00017KT 07/02 A3037 RMK A01 T00670022  RH  073%=      5-min Rain = 0
KPG1 100737Z 00016KT 07/02 A3037 RMK A01 T00670021  RH  073%=      5-min Rain = 0
KPG1 100738Z 01014KT 07/02 A3037 RMK A01 T00670021  RH  073%=      5-min Rain = 0
KPG1 100739Z 01015KT 07/02 A3036 RMK A01 T00670021  RH  073%=      5-min Rain = 0
KPG1 100740Z 01017KT 07/02 A3036 RMK A01 T00670021  RH  073%=      5-min Rain = 0
KPG1 100741Z 01015KT 07/02 A3036 RMK A01 T00670021  RH  072%=      5-min Rain = 0
KPG1 100742Z 01015KT 07/02 A3036 RMK A01 T00670021  RH  072%=      5-min Rain = 0
KPG1 100743Z 01014KT 07/02 A3036 RMK A01 T00670021  RH  073%=      5-min Rain = 0
KPG1 100744Z 01015KT 07/02 A3036 RMK A01 T00670021  RH  073%=      5-min Rain = 0
KPG1 100745Z 01015KT 07/02 A3036 RMK A01 T00670021  RH  073%=      5-min Rain = 0
KPG1 100746Z 02014KT 07/02 A3036 RMK A01 T00670021  RH  073%=      5-min Rain = 0
KPG1 100747Z 01014KT 07/02 A3036 RMK A01 T00660021  RH  073%=      5-min Rain = 0
KPG1 100748Z 02013KT 07/02 A3036 RMK A01 T00660021  RH  073%=      5-min Rain = 0
KPG1 100749Z 01014KT 07/02 A3036 RMK A01 T00660021  RH  073%=      5-min Rain = 0
KPG1 100750Z 01015KT 07/02 A3036 RMK A01 T00660021  RH  073%=      5-min Rain = 0
KPG1 100751Z 01015KT 07/02 A3036 RMK A01 T00660021  RH  073%=      5-min Rain = 0
KPG1 100752Z 01017KT 07/02 A3036 RMK A01 T00660020  RH  072%=      5-min Rain = 0
KPG1 100753Z 02014KT 07/02 A3036 RMK A01 T00670020  RH  072%=      5-min Rain = 0
KPG1 100754Z 02016KT 07/02 A3036 RMK A01 T00670021  RH  072%=      5-min Rain = 0
KPG1 100755Z 02015KT 07/02 A3036 RMK A01 T00670020  RH  072%=      5-min Rain = 0
KPG1 100756Z 02015KT 07/02 A3036 RMK A01 T00670020  RH  072%=      5-min Rain = 0
KPG1 100757Z 02014KT 07/02 A3036 RMK A01 T00670020  RH  072%=      5-min Rain = 0
KPG1 100758Z 02016KT 07/02 A3036 RMK A01 T00670020  RH  072%=      5-min Rain = 0
KPG1 100759Z 02015KT 07/02 A3036 RMK A01 T00670021  RH  073%=      5-min Rain = 0
KPG1 100800Z 02018KT 07/02 A3036 RMK A01 T00660021  RH  073%=      5-min Rain = 0
KPG1 100801Z 02015KT 07/02 A3036 RMK A01 T00670021  RH  073%=      5-min Rain = 0
KPG1 100802Z 02015KT 07/02 A3036 RMK A01 T00670021  RH  073%=      5-min Rain = 0
KPG1 100803Z 02015KT 07/02 A3036 RMK A01 T00670021  RH  073%=      5-min Rain = 0
KPG1 100804Z 01015KT 07/02 A3036 RMK A01 T00670021  RH  072%=      5-min Rain = 0
KPG1 100805Z 02014KT 07/02 A3036 RMK A01 T00660021  RH  072%=      5-min Rain = 0
KPG1 100806Z 02015KT 07/02 A3036 RMK A01 T00670021  RH  072%=      5-min Rain = 0
KPG1 100807Z 02015KT 07/02 A3036 RMK A01 T00670021  RH  072%=      5-min Rain = 0
KPG1 100808Z 02015KT 07/02 A3036 RMK A01 T00670021  RH  073%=      5-min Rain = 0
KPG1 100809Z 02015KT 07/02 A3036 RMK A01 T00670021  RH  072%=      5-min Rain = 0
KPG1 100810Z 02015KT 07/02 A3036 RMK A01 T00670020  RH  072%=      5-min Rain = 0
KPG1 100811Z 02014KT 07/02 A3036 RMK A01 T00670021  RH  073%=      5-min Rain = 0
KPG1 100812Z 02014KT 07/02 A3036 RMK A01 T00660021  RH  073%=      5-min Rain = 0
KPG1 100813Z 02015KT 07/02 A3036 RMK A01 T00660022  RH  073%=      5-min Rain = 0
KPG1 100814Z 02015KT 07/02 A3036 RMK A01 T00660021  RH  073%=      5-min Rain = 0
KPG1 100815Z 02015KT 07/02 A3036 RMK A01 T00660022  RH  073%=      5-min Rain = 0
KPG1 100816Z 01015KT 07/02 A3036 RMK A01 T00650021  RH  074%=      5-min Rain = 0
KPG1 100817Z 01014KT 07/02 A3036 RMK A01 T00650021  RH  073%=      5-min Rain = 0
KPG1 100818Z 02016KT 07/02 A3036 RMK A01 T00650021  RH  073%=      5-min Rain = 0
KPG1 100819Z 02015KT 07/02 A3036 RMK A01 T00660021  RH  073%=      5-min Rain = 0
KPG1 100820Z 02014KT 07/02 A3036 RMK A01 T00650021  RH  073%=      5-min Rain = 0
KPG1 100821Z 02015KT 07/02 A3036 RMK A01 T00650022  RH  074%=      5-min Rain = 0
KPG1 100822Z 02015KT 07/02 A3036 RMK A01 T00650021  RH  074%=      5-min Rain = 0
KPG1 100823Z 02014KT 06/02 A3036 RMK A01 T00640021  RH  074%=      5-min Rain = 0
KPG1 100824Z 02011KT 06/02 A3036 RMK A01 T00640021  RH  074%=      5-min Rain = 0
KPG1 100825Z 02012KT 06/02 A3036 RMK A01 T00640022  RH  075%=      5-min Rain = 0
KPG1 100826Z 02014KT 06/02 A3036 RMK A01 T00620022  RH  075%=      5-min Rain = 0
KPG1 100827Z 02014KT 06/02 A3036 RMK A01 T00620021  RH  075%=      5-min Rain = 0
KPG1 100828Z 03013KT 06/02 A3036 RMK A01 T00620021  RH  075%=      5-min Rain = 0
KPG1 100829Z 02013KT 06/02 A3036 RMK A01 T00620021  RH  075%=      5-min Rain = 0
KPG1 100830Z 02013KT 06/02 A3036 RMK A01 T00620021  RH  075%=      5-min Rain = 0
KPG1 100831Z 02012KT 06/02 A3036 RMK A01 T00610021  RH  075%=      5-min Rain = 0
KPG1 100832Z 02013KT 06/02 A3036 RMK A01 T00620021  RH  075%=      5-min Rain = 0
KPG1 100833Z 02013KT 06/02 A3037 RMK A01 T00620021  RH  075%=      5-min Rain = 0
KPG1 100834Z 02012KT 06/02 A3037 RMK A01 T00630021  RH  074%=      5-min Rain = 0
KPG1 100835Z 02012KT 06/02 A3037 RMK A01 T00630021  RH  074%=      5-min Rain = 0
KPG1 100836Z 02015KT 06/02 A3037 RMK A01 T00640021  RH  074%=      5-min Rain = 0
KPG1 100837Z 02015KT 06/02 A3037 RMK A01 T00640021  RH  074%=      5-min Rain = 0
KPG1 100838Z 02012KT 07/02 A3037 RMK A01 T00650021  RH  073%=      5-min Rain = 0
KPG1 100839Z 02013KT 07/02 A3037 RMK A01 T00650021  RH  074%=      5-min Rain = 0
KPG1 100840Z 02013KT 07/02 A3037 RMK A01 T00650021  RH  074%=      5-min Rain = 0
KPG1 100841Z 02012KT 07/02 A3037 RMK A01 T00650021  RH  074%=      5-min Rain = 0
KPG1 100842Z 02011KT 07/02 A3037 RMK A01 T00650021  RH  074%=      5-min Rain = 0
KPG1 100843Z 02012KT 07/02 A3037 RMK A01 T00650022  RH  074%=      5-min Rain = 0
KPG1 100844Z 02012KT 06/02 A3037 RMK A01 T00640022  RH  074%=      5-min Rain = 0
KPG1 100845Z 00013KT 06/02 A3037 RMK A01 T00640022  RH  074%=      5-min Rain = 0
KPG1 100846Z 01013KT 06/02 A3037 RMK A01 T00640021  RH  074%=      5-min Rain = 0
KPG1 100847Z 02011KT 07/02 A3037 RMK A01 T00650021  RH  074%=      5-min Rain = 0
KPG1 100848Z 02011KT 07/02 A3037 RMK A01 T00650021  RH  074%=      5-min Rain = 0
KPG1 100849Z 01011KT 07/02 A3037 RMK A01 T00650021  RH  074%=      5-min Rain = 0
KPG1 100850Z 02012KT 06/02 A3037 RMK A01 T00640021  RH  074%=      5-min Rain = 0
KPG1 100851Z 01011KT 06/02 A3037 RMK A01 T00640020  RH  073%=      5-min Rain = 0
KPG1 100852Z 01011KT 07/02 A3037 RMK A01 T00650021  RH  073%=      5-min Rain = 0
KPG1 100853Z 02010KT 07/02 A3037 RMK A01 T00650021  RH  073%=      5-min Rain = 0
KPG1 100854Z 01009KT 06/02 A3037 RMK A01 T00640020  RH  074%=      5-min Rain = 0
KPG1 100855Z 01011KT 06/02 A3037 RMK A01 T00640020  RH  074%=      5-min Rain = 0
KPG1 100856Z 01012KT 06/02 A3037 RMK A01 T00640021  RH  074%=      5-min Rain = 0
KPG1 100857Z 01012KT 06/02 A3037 RMK A01 T00640020  RH  073%=      5-min Rain = 0
KPG1 100858Z 01011KT 07/02 A3037 RMK A01 T00650020  RH  073%=      5-min Rain = 0
KPG1 100859Z 01011KT 07/02 A3037 RMK A01 T00650020  RH  073%=      5-min Rain = 0
KPG1 100900Z 01010KT 07/02 A3037 RMK A01 T00650020  RH  073%=      5-min Rain = 0
KPG1 100901Z 01010KT 07/02 A3036 RMK A01 T00650020  RH  073%=      5-min Rain = 0
KPG1 100902Z 00011KT 07/02 A3036 RMK A01 T00650020  RH  073%=      5-min Rain = 0
KPG1 100903Z 00011KT 06/02 A3036 RMK A01 T00640020  RH  073%=      5-min Rain = 0
KPG1 100904Z 01010KT 07/02 A3036 RMK A01 T00650020  RH  073%=      5-min Rain = 0
KPG1 100905Z 00010KT 07/02 A3036 RMK A01 T00650020  RH  073%=      5-min Rain = 0
KPG1 100906Z 01010KT 06/02 A3036 RMK A01 T00640020  RH  073%=      5-min Rain = 0
KPG1 100907Z 01010KT 06/02 A3036 RMK A01 T00640020  RH  073%=      5-min Rain = 0
KPG1 100908Z 00011KT 06/02 A3036 RMK A01 T00640019  RH  073%=      5-min Rain = 0
KPG1 100909Z 00011KT 06/02 A3036 RMK A01 T00640019  RH  073%=      5-min Rain = 0
KPG1 100910Z 01009KT 06/02 A3036 RMK A01 T00640019  RH  073%=      5-min Rain = 0
KPG1 100911Z 00009G14KT 06/02 A3036 RMK A01 T00640019  RH  073%=      5-min Rain = 0
KPG1 100912Z 01009KT 06/02 A3036 RMK A01 T00640019  RH  073%=      5-min Rain = 0
KPG1 100913Z 01010KT 06/02 A3036 RMK A01 T00640018  RH  072%=      5-min Rain = 0
KPG1 100914Z 01011KT 07/02 A3036 RMK A01 T00650018  RH  072%=      5-min Rain = 0
KPG1 100915Z 01010KT 07/02 A3036 RMK A01 T00650018  RH  072%=      5-min Rain = 0
KPG1 100916Z 01009KT 07/02 A3036 RMK A01 T00650018  RH  072%=      5-min Rain = 0
KPG1 100917Z 02009KT 06/02 A3036 RMK A01 T00640019  RH  072%=      5-min Rain = 0
KPG1 100918Z 00009KT 06/02 A3036 RMK A01 T00640018  RH  072%=      5-min Rain = 0
KPG1 100919Z 01009KT 06/02 A3036 RMK A01 T00640018  RH  072%=      5-min Rain = 0
KPG1 100920Z 00009KT 06/02 A3036 RMK A01 T00640018  RH  072%=      5-min Rain = 0
KPG1 100921Z 01011KT 06/02 A3036 RMK A01 T00640018  RH  072%=      5-min Rain = 0
KPG1 100922Z 00009KT 07/02 A3036 RMK A01 T00650017  RH  072%=      5-min Rain = 0
KPG1 100923Z 00010KT 07/02 A3036 RMK A01 T00650018  RH  072%=      5-min Rain = 0
KPG1 100924Z 01010KT 07/02 A3036 RMK A01 T00650017  RH  071%=      5-min Rain = 0
KPG1 100925Z 01007KT 07/02 A3036 RMK A01 T00650016  RH  071%=      5-min Rain = 0
KPG1 100926Z 01008KT 07/02 A3036 RMK A01 T00650016  RH  071%=      5-min Rain = 0
KPG1 100927Z 01008KT 07/02 A3036 RMK A01 T00650017  RH  071%=      5-min Rain = 0
KPG1 100928Z 00008KT 07/02 A3036 RMK A01 T00650017  RH  071%=      5-min Rain = 0
KPG1 100929Z 01008KT 07/02 A3036 RMK A01 T00650017  RH  071%=      5-min Rain = 0
KPG1 100930Z 02008KT 07/02 A3036 RMK A01 T00650017  RH  071%=      5-min Rain = 0
KPG1 100931Z 03008KT 07/02 A3036 RMK A01 T00650017  RH  071%=      5-min Rain = 0
KPG1 100932Z 01006KT 07/02 A3036 RMK A01 T00650017  RH  072%=      5-min Rain = 0
KPG1 100933Z 01007KT 06/02 A3036 RMK A01 T00640017  RH  072%=      5-min Rain = 0
KPG1 100934Z 01008KT 06/02 A3036 RMK A01 T00640017  RH  072%=      5-min Rain = 0
KPG1 100935Z 01008KT 06/02 A3036 RMK A01 T00630017  RH  072%=      5-min Rain = 0
KPG1 100936Z 01008KT 06/02 A3036 RMK A01 T00630017  RH  072%=      5-min Rain = 0
KPG1 100937Z 02008KT 06/02 A3036 RMK A01 T00620017  RH  073%=      5-min Rain = 0
KPG1 100938Z 02009KT 06/02 A3036 RMK A01 T00620017  RH  073%=      5-min Rain = 0
KPG1 100939Z 01008KT 06/02 A3036 RMK A01 T00620016  RH  073%=      5-min Rain = 0
KPG1 100940Z 02008KT 06/02 A3036 RMK A01 T00630016  RH  072%=      5-min Rain = 0
KPG1 100941Z 03009KT 06/02 A3036 RMK A01 T00630017  RH  072%=      5-min Rain = 0
KPG1 100942Z 02009KT 06/02 A3036 RMK A01 T00620017  RH  073%=      5-min Rain = 0
KPG1 100943Z 02009KT 06/02 A3036 RMK A01 T00590017  RH  074%=      5-min Rain = 0
KPG1 100944Z 02008KT 06/02 A3036 RMK A01 T00580018  RH  075%=      5-min Rain = 0
KPG1 100945Z 02009KT 06/02 A3036 RMK A01 T00580018  RH  076%=      5-min Rain = 0
KPG1 100946Z 03009KT 06/02 A3036 RMK A01 T00580018  RH  075%=      5-min Rain = 0
KPG1 100947Z 02009KT 06/02 A3036 RMK A01 T00580018  RH  076%=      5-min Rain = 0
KPG1 100948Z 02009KT 06/02 A3036 RMK A01 T00570018  RH  076%=      5-min Rain = 0
KPG1 100949Z 02009KT 06/02 A3036 RMK A01 T00550018  RH  077%=      5-min Rain = 0
KPG1 100950Z 02009KT 06/02 A3036 RMK A01 T00550018  RH  077%=      5-min Rain = 0
KPG1 100951Z 02010KT 06/02 A3036 RMK A01 T00550018  RH  077%=      5-min Rain = 0
KPG1 100952Z 02010KT 06/02 A3036 RMK A01 T00550018  RH  077%=      5-min Rain = 0
KPG1 100953Z 03010KT 06/02 A3036 RMK A01 T00550018  RH  077%=      5-min Rain = 0
KPG1 100954Z 02011KT 06/02 A3036 RMK A01 T00550018  RH  077%=      5-min Rain = 0
KPG1 100955Z 03011KT 06/02 A3036 RMK A01 T00550018  RH  077%=      5-min Rain = 0
KPG1 100956Z 03011KT 06/02 A3036 RMK A01 T00550018  RH  077%=      5-min Rain = 0
KPG1 100957Z 03010KT 06/02 A3036 RMK A01 T00550018  RH  077%=      5-min Rain = 0
KPG1 100958Z 02010KT 06/02 A3036 RMK A01 T00560018  RH  077%=      5-min Rain = 0
KPG1 100959Z 02010KT 06/02 A3036 RMK A01 T00560018  RH  077%=      5-min Rain = 0
KPG1 101000Z 02009KT 06/02 A3036 RMK A01 T00550018  RH  077%=      5-min Rain = 0
KPG1 101001Z 02010KT 06/02 A3036 RMK A01 T00550018  RH  077%=      5-min Rain = 0
KPG1 101002Z 02010KT 06/02 A3036 RMK A01 T00560018  RH  077%=      5-min Rain = 0
KPG1 101003Z 02008KT 06/02 A3036 RMK A01 T00570018  RH  076%=      5-min Rain = 0
KPG1 101004Z 02008KT 06/02 A3036 RMK A01 T00550018  RH  077%=      5-min Rain = 0
KPG1 101005Z 03009KT 05/02 A3036 RMK A01 T00540018  RH  077%=      5-min Rain = 0
KPG1 101006Z 03009KT 05/02 A3036 RMK A01 T00540018  RH  078%=      5-min Rain = 0
KPG1 101007Z 03009KT 05/02 A3036 RMK A01 T00540018  RH  078%=      5-min Rain = 0
KPG1 101008Z 04009KT 05/02 A3036 RMK A01 T00530018  RH  078%=      5-min Rain = 0
KPG1 101009Z 04009KT 05/02 A3036 RMK A01 T00520018  RH  079%=      5-min Rain = 0
KPG1 101010Z 03009KT 05/02 A3036 RMK A01 T00520018  RH  079%=      5-min Rain = 0
KPG1 101011Z 03009KT 05/02 A3036 RMK A01 T00510018  RH  079%=      5-min Rain = 0
KPG1 101012Z 03010KT 05/02 A3036 RMK A01 T00510018  RH  079%=      5-min Rain = 0
KPG1 101013Z 02009KT 05/02 A3036 RMK A01 T00510019  RH  080%=      5-min Rain = 0
KPG1 101014Z 02009KT 05/02 A3036 RMK A01 T00510019  RH  080%=      5-min Rain = 0
KPG1 101015Z 02009KT 05/02 A3036 RMK A01 T00510019  RH  080%=      5-min Rain = 0
KPG1 101016Z 02009KT 05/02 A3036 RMK A01 T00510019  RH  080%=      5-min Rain = 0
KPG1 101017Z 03010KT 05/02 A3036 RMK A01 T00510019  RH  079%=      5-min Rain = 0
KPG1 101018Z 03010KT 05/02 A3036 RMK A01 T00520018  RH  079%=      5-min Rain = 0
KPG1 101019Z 03010KT 05/02 A3036 RMK A01 T00530018  RH  078%=      5-min Rain = 0
KPG1 101020Z 03010KT 05/02 A3036 RMK A01 T00530018  RH  078%=      5-min Rain = 0
KPG1 101021Z 03009KT 05/02 A3036 RMK A01 T00530018  RH  078%=      5-min Rain = 0
KPG1 101022Z 03009KT 05/02 A3036 RMK A01 T00540018  RH  078%=      5-min Rain = 0
KPG1 101023Z 03009KT 05/02 A3036 RMK A01 T00530018  RH  078%=      5-min Rain = 0
KPG1 101024Z 03009KT 05/02 A3036 RMK A01 T00530018  RH  078%=      5-min Rain = 0
KPG1 101025Z 03009KT 05/02 A3036 RMK A01 T00530018  RH  078%=      5-min Rain = 0
KPG1 101026Z 03010KT 05/02 A3036 RMK A01 T00530018  RH  078%=      5-min Rain = 0
KPG1 101027Z 03009KT 05/02 A3036 RMK A01 T00520018  RH  078%=      5-min Rain = 0
KPG1 101028Z 03009KT 05/02 A3036 RMK A01 T00530018  RH  078%=      5-min Rain = 0
KPG1 101029Z 03008KT 05/02 A3036 RMK A01 T00520018  RH  078%=      5-min Rain = 0
KPG1 101030Z 03008KT 05/02 A3036 RMK A01 T00530018  RH  078%=      5-min Rain = 0
KPG1 101031Z 03009KT 05/02 A3036 RMK A01 T00530018  RH  078%=      5-min Rain = 0
KPG1 101032Z 03008KT 05/02 A3036 RMK A01 T00530018  RH  078%=      5-min Rain = 0
KPG1 101033Z 02008KT 05/02 A3036 RMK A01 T00520017  RH  078%=      5-min Rain = 0
KPG1 101034Z 02007KT 05/02 A3036 RMK A01 T00520018  RH  079%=      5-min Rain = 0
KPG1 101035Z 03008KT 05/02 A3036 RMK A01 T00510018  RH  079%=      5-min Rain = 0
KPG1 101036Z 03008KT 05/02 A3036 RMK A01 T00510018  RH  079%=      5-min Rain = 0
KPG1 101037Z 03008KT 05/02 A3036 RMK A01 T00510018  RH  079%=      5-min Rain = 0
KPG1 101038Z 03008KT 05/02 A3036 RMK A01 T00500017  RH  079%=      5-min Rain = 0
KPG1 101039Z 03008KT 05/02 A3036 RMK A01 T00510018  RH  079%=      5-min Rain = 0
KPG1 101040Z 03008KT 05/02 A3036 RMK A01 T00520018  RH  079%=      5-min Rain = 0
KPG1 101041Z 03008KT 05/02 A3036 RMK A01 T00520018  RH  078%=      5-min Rain = 0
KPG1 101042Z 03007KT 05/02 A3036 RMK A01 T00520018  RH  079%=      5-min Rain = 0
KPG1 101043Z 03007KT 05/02 A3035 RMK A01 T00510018  RH  079%=      5-min Rain = 0
KPG1 101044Z 03007KT 05/02 A3035 RMK A01 T00510018  RH  079%=      5-min Rain = 0
KPG1 101045Z 03007KT 05/02 A3035 RMK A01 T00510018  RH  079%=      5-min Rain = 0
KPG1 101046Z 03007KT 05/02 A3035 RMK A01 T00510018  RH  079%=      5-min Rain = 0
KPG1 101047Z 02007KT 05/02 A3035 RMK A01 T00510018  RH  079%=      5-min Rain = 0
KPG1 101048Z 02007KT 05/02 A3035 RMK A01 T00520018  RH  079%=      5-min Rain = 0
KPG1 101049Z 02008KT 05/02 A3035 RMK A01 T00510017  RH  079%=      5-min Rain = 0
KPG1 101050Z 03008KT 05/02 A3035 RMK A01 T00520018  RH  079%=      5-min Rain = 0
KPG1 101051Z 03007KT 05/02 A3035 RMK A01 T00510018  RH  079%=      5-min Rain = 0
KPG1 101052Z 02007KT 05/02 A3035 RMK A01 T00500018  RH  079%=      5-min Rain = 0
KPG1 101053Z 03007KT 05/02 A3035 RMK A01 T00500018  RH  080%=      5-min Rain = 0
KPG1 101054Z 02007KT 05/02 A3035 RMK A01 T00500018  RH  080%=      5-min Rain = 0
KPG1 101055Z 02007KT 05/02 A3035 RMK A01 T00500018  RH  080%=      5-min Rain = 0
KPG1 101056Z 02007KT 05/02 A3035 RMK A01 T00500018  RH  080%=      5-min Rain = 0
KPG1 101057Z 02008KT 05/02 A3035 RMK A01 T00500018  RH  080%=      5-min Rain = 0
KPG1 101058Z 02009KT 05/02 A3035 RMK A01 T00500018  RH  080%=      5-min Rain = 0
KPG1 101059Z 02008KT 05/02 A3035 RMK A01 T00500018  RH  080%=      5-min Rain = 0
KPG1 101100Z 03008KT 05/02 A3035 RMK A01 T00500018  RH  080%=      5-min Rain = 0
KPG1 101101Z 02008KT 05/02 A3035 RMK A01 T00500018  RH  080%=      5-min Rain = 0
KPG1 101102Z 03008KT 05/02 A3035 RMK A01 T00490018  RH  080%=      5-min Rain = 0
KPG1 101103Z 03007KT 05/02 A3035 RMK A01 T00490019  RH  081%=      5-min Rain = 0
KPG1 101104Z 02007KT 05/02 A3035 RMK A01 T00490018  RH  080%=      5-min Rain = 0
KPG1 101105Z 02008KT 05/02 A3035 RMK A01 T00500018  RH  080%=      5-min Rain = 0
KPG1 101106Z 02008KT 05/02 A3035 RMK A01 T00500018  RH  080%=      5-min Rain = 0
KPG1 101107Z 03008KT 05/02 A3035 RMK A01 T00500018  RH  080%=      5-min Rain = 0
KPG1 101108Z 02007KT 05/02 A3035 RMK A01 T00500018  RH  079%=      5-min Rain = 0
KPG1 101109Z 03007KT 05/02 A3035 RMK A01 T00500018  RH  079%=      5-min Rain = 0
KPG1 101110Z 02006KT 05/02 A3035 RMK A01 T00500018  RH  079%=      5-min Rain = 0
KPG1 101111Z 02006KT 05/02 A3035 RMK A01 T00500018  RH  080%=      5-min Rain = 0
KPG1 101112Z 02005KT 05/02 A3035 RMK A01 T00500018  RH  080%=      5-min Rain = 0
KPG1 101113Z 02005KT 05/02 A3035 RMK A01 T00510018  RH  079%=      5-min Rain = 0
KPG1 101114Z 03005KT 05/02 A3035 RMK A01 T00520018  RH  079%=      5-min Rain = 0
KPG1 101115Z 03005KT 05/02 A3035 RMK A01 T00520018  RH  078%=      5-min Rain = 0
KPG1 101116Z 03005KT 05/02 A3036 RMK A01 T00530018  RH  078%=      5-min Rain = 0
KPG1 101117Z 03005KT 05/02 A3036 RMK A01 T00530018  RH  078%=      5-min Rain = 0
KPG1 101118Z 03005KT 05/02 A3036 RMK A01 T00530018  RH  078%=      5-min Rain = 0
KPG1 101119Z 03006KT 05/02 A3036 RMK A01 T00530018  RH  078%=      5-min Rain = 0
KPG1 101120Z 03005KT 05/02 A3036 RMK A01 T00530018  RH  078%=      5-min Rain = 0
KPG1 101121Z 03005KT 05/02 A3036 RMK A01 T00530018  RH  078%=      5-min Rain = 0
KPG1 101122Z 03005KT 05/02 A3035 RMK A01 T00530018  RH  078%=      5-min Rain = 0
KPG1 101123Z 03005KT 05/02 A3035 RMK A01 T00520018  RH  078%=      5-min Rain = 0
KPG1 101124Z 03005KT 05/02 A3035 RMK A01 T00520017  RH  078%=      5-min Rain = 0
KPG1 101125Z 03005KT 05/02 A3035 RMK A01 T00520017  RH  078%=      5-min Rain = 0
KPG1 101126Z 03005KT 05/02 A3035 RMK A01 T00520017  RH  078%=      5-min Rain = 0
KPG1 101127Z 03005KT 05/02 A3035 RMK A01 T00530017  RH  078%=      5-min Rain = 0
KPG1 101128Z 03005KT 05/02 A3035 RMK A01 T00530017  RH  078%=      5-min Rain = 0
KPG1 101129Z 03005KT 05/02 A3035 RMK A01 T00530017  RH  077%=      5-min Rain = 0
KPG1 101130Z 03005KT 05/02 A3036 RMK A01 T00540017  RH  077%=      5-min Rain = 0
KPG1 101131Z 03005KT 06/02 A3036 RMK A01 T00550017  RH  077%=      5-min Rain = 0
KPG1 101132Z 03005KT 05/02 A3035 RMK A01 T00540017  RH  077%=      5-min Rain = 0
KPG1 101133Z 03006KT 05/02 A3035 RMK A01 T00540017  RH  077%=      5-min Rain = 0
KPG1 101134Z 03005KT 05/02 A3035 RMK A01 T00530017  RH  077%=      5-min Rain = 0
KPG1 101135Z 03006KT 05/02 A3035 RMK A01 T00530017  RH  078%=      5-min Rain = 0
KPG1 101136Z 03006KT 05/02 A3035 RMK A01 T00520017  RH  078%=      5-min Rain = 0
KPG1 101137Z 03006KT 05/02 A3035 RMK A01 T00510017  RH  078%=      5-min Rain = 0
KPG1 101138Z 03006KT 05/02 A3035 RMK A01 T00510017  RH  079%=      5-min Rain = 0
KPG1 101139Z 04006KT 05/02 A3035 RMK A01 T00510017  RH  079%=      5-min Rain = 0
KPG1 101140Z 04006KT 05/02 A3035 RMK A01 T00510017  RH  079%=      5-min Rain = 0
KPG1 101141Z 04006KT 05/02 A3036 RMK A01 T00500017  RH  079%=      5-min Rain = 0
KPG1 101142Z 04006KT 05/02 A3036 RMK A01 T00490017  RH  080%=      5-min Rain = 0
KPG1 101143Z 04006KT 05/02 A3036 RMK A01 T00490018  RH  080%=      5-min Rain = 0
KPG1 101144Z 03006KT 05/02 A3036 RMK A01 T00490018  RH  080%=      5-min Rain = 0
KPG1 101145Z 03006KT 05/02 A3036 RMK A01 T00490018  RH  080%=      5-min Rain = 0
KPG1 101146Z 03005KT 05/02 A3036 RMK A01 T00490018  RH  080%=      5-min Rain = 0
KPG1 101147Z 03005KT 05/02 A3036 RMK A01 T00490018  RH  080%=      5-min Rain = 0
KPG1 101148Z 03005KT 05/02 A3036 RMK A01 T00500018  RH  080%=      5-min Rain = 0
KPG1 101149Z 03005KT 05/02 A3036 RMK A01 T00500018  RH  080%=      5-min Rain = 0
KPG1 101150Z 03005KT 05/02 A3036 RMK A01 T00510018  RH  079%=      5-min Rain = 0
KPG1 101151Z 02005KT 05/02 A3036 RMK A01 T00510018  RH  079%=      5-min Rain = 0
KPG1 101152Z 03005KT 05/02 A3036 RMK A01 T00520018  RH  079%=      5-min Rain = 0
KPG1 101153Z 03005KT 05/02 A3036 RMK A01 T00530018  RH  078%=      5-min Rain = 0
KPG1 101154Z 03004KT 05/02 A3036 RMK A01 T00530018  RH  078%=      5-min Rain = 0
KPG1 101155Z 02004KT 05/02 A3036 RMK A01 T00530018  RH  078%=      5-min Rain = 0
KPG1 101156Z 02004KT 05/02 A3036 RMK A01 T00520018  RH  078%=      5-min Rain = 0
KPG1 101157Z 01004KT 05/02 A3036 RMK A01 T00510017  RH  079%=      5-min Rain = 0
KPG1 101158Z 01004KT 05/02 A3036 RMK A01 T00500018  RH  079%=      5-min Rain = 0
KPG1 101159Z 36003KT 05/02 A3036 RMK A01 T00500018  RH  080%=      5-min Rain = 0
KPG1 101200Z 35002KT 05/02 A3036 RMK A01 T00500018  RH  080%=      5-min Rain = 0
KPG1 101201Z 35002KT 05/02 A3036 RMK A01 T00500018  RH  080%=      5-min Rain = 0
KPG1 101202Z 35003KT 05/02 A3036 RMK A01 T00500018  RH  080%=      5-min Rain = 0
KPG1 101203Z 36003KT 05/02 A3037 RMK A01 T00500017  RH  080%=      5-min Rain = 0
KPG1 101204Z 00003KT 05/02 A3037 RMK A01 T00490017  RH  080%=      5-min Rain = 0
KPG1 101205Z 00003KT 05/02 A3037 RMK A01 T00490017  RH  080%=      5-min Rain = 0
KPG1 101206Z 00003KT 05/02 A3037 RMK A01 T00490017  RH  080%=      5-min Rain = 0
KPG1 101207Z 33003KT 05/02 A3037 RMK A01 T00490017  RH  080%=      5-min Rain = 0
KPG1 101208Z 32003KT 05/02 A3037 RMK A01 T00490017  RH  080%=      5-min Rain = 0
KPG1 101209Z 32002KT 05/02 A3037 RMK A01 T00500017  RH  079%=      5-min Rain = 0
KPG1 101210Z 35002KT 05/02 A3037 RMK A01 T00510017  RH  079%=      5-min Rain = 0
KPG1 101211Z 01003KT 05/02 A3037 RMK A01 T00520017  RH  078%=      5-min Rain = 0
KPG1 101212Z 02004KT 05/02 A3037 RMK A01 T00520017  RH  078%=      5-min Rain = 0
KPG1 101213Z 01004KT 05/02 A3037 RMK A01 T00510017  RH  079%=      5-min Rain = 0
KPG1 101214Z 02004KT 05/02 A3037 RMK A01 T00500017  RH  079%=      5-min Rain = 0
KPG1 101215Z 02003KT 05/02 A3037 RMK A01 T00490017  RH  080%=      5-min Rain = 0
KPG1 101216Z 03003KT 05/02 A3037 RMK A01 T00490017  RH  080%=      5-min Rain = 0
KPG1 101217Z 03003KT 05/02 A3037 RMK A01 T00490017  RH  080%=      5-min Rain = 0
KPG1 101218Z 03003KT 05/02 A3037 RMK A01 T00480017  RH  080%=      5-min Rain = 0
KPG1 101219Z 02003KT 05/02 A3037 RMK A01 T00480017  RH  081%=      5-min Rain = 0
KPG1 101220Z 02003KT 05/02 A3037 RMK A01 T00480018  RH  081%=      5-min Rain = 0
KPG1 101221Z 02003KT 05/02 A3037 RMK A01 T00470017  RH  081%=      5-min Rain = 0
KPG1 101222Z 02003KT 05/02 A3037 RMK A01 T00470017  RH  081%=      5-min Rain = 0
KPG1 101223Z 01003KT 05/02 A3037 RMK A01 T00460017  RH  081%=      5-min Rain = 0
KPG1 101224Z 01004KT 05/02 A3037 RMK A01 T00460018  RH  082%=      5-min Rain = 0
KPG1 101225Z 01003KT 05/02 A3037 RMK A01 T00460018  RH  082%=      5-min Rain = 0
KPG1 101226Z 01003KT 05/02 A3037 RMK A01 T00470018  RH  082%=      5-min Rain = 0
KPG1 101227Z 02003KT 05/02 A3037 RMK A01 T00470018  RH  081%=      5-min Rain = 0
KPG1 101228Z 02003KT 05/02 A3037 RMK A01 T00470017  RH  081%=      5-min Rain = 0
KPG1 101229Z 01003KT 05/02 A3037 RMK A01 T00470018  RH  081%=      5-min Rain = 0
KPG1 101230Z 01003KT 05/02 A3037 RMK A01 T00470017  RH  081%=      5-min Rain = 0
KPG1 101231Z 35003KT 05/02 A3037 RMK A01 T00470017  RH  081%=      5-min Rain = 0
KPG1 101232Z 35003KT 05/02 A3037 RMK A01 T00460017  RH  081%=      5-min Rain = 0
KPG1 101233Z 36003KT 05/02 A3037 RMK A01 T00470018  RH  081%=      5-min Rain = 0
KPG1 101234Z 00004KT 05/02 A3037 RMK A01 T00480018  RH  081%=      5-min Rain = 0
KPG1 101235Z 01004KT 05/02 A3037 RMK A01 T00490018  RH  080%=      5-min Rain = 0
KPG1 101236Z 01004KT 05/02 A3038 RMK A01 T00490018  RH  080%=      5-min Rain = 0
KPG1 101237Z 01004KT 05/02 A3038 RMK A01 T00490018  RH  080%=      5-min Rain = 0
KPG1 101238Z 02005KT 05/02 A3038 RMK A01 T00500017  RH  080%=      5-min Rain = 0
KPG1 101239Z 02004KT 05/02 A3038 RMK A01 T00510018  RH  079%=      5-min Rain = 0
KPG1 101240Z 03004KT 05/02 A3038 RMK A01 T00520018  RH  079%=      5-min Rain = 0
KPG1 101241Z 02003KT 05/02 A3038 RMK A01 T00530018  RH  079%=      5-min Rain = 0
KPG1 101242Z 02004KT 05/02 A3038 RMK A01 T00520018  RH  078%=      5-min Rain = 0
KPG1 101243Z 02004KT 05/02 A3038 RMK A01 T00510017  RH  079%=      5-min Rain = 0
KPG1 101244Z 02004KT 05/02 A3038 RMK A01 T00500017  RH  079%=      5-min Rain = 0
KPG1 101245Z 01004KT 05/02 A3038 RMK A01 T00500018  RH  080%=      5-min Rain = 0
KPG1 101246Z 01005KT 05/02 A3038 RMK A01 T00500018  RH  080%=      5-min Rain = 0
KPG1 101247Z 01005KT 05/02 A3038 RMK A01 T00510018  RH  080%=      5-min Rain = 0
KPG1 101248Z 01005KT 05/02 A3038 RMK A01 T00500018  RH  079%=      5-min Rain = 0
KPG1 101249Z 01005KT 05/02 A3038 RMK A01 T00510018  RH  079%=      5-min Rain = 0
KPG1 101250Z 01006KT 05/02 A3038 RMK A01 T00530018  RH  078%=      5-min Rain = 0
KPG1 101251Z 01005KT 05/02 A3038 RMK A01 T00530018  RH  078%=      5-min Rain = 0
KPG1 101252Z 01006KT 05/02 A3038 RMK A01 T00530018  RH  078%=      5-min Rain = 0
KPG1 101253Z 01006KT 05/02 A3038 RMK A01 T00520017  RH  078%=      5-min Rain = 0
KPG1 101254Z 01005KT 05/02 A3038 RMK A01 T00520017  RH  078%=      5-min Rain = 0
KPG1 101255Z 02004KT 05/02 A3038 RMK A01 T00510017  RH  079%=      5-min Rain = 0
KPG1 101256Z 02005KT 05/02 A3038 RMK A01 T00500017  RH  079%=      5-min Rain = 0
KPG1 101257Z 02005KT 05/02 A3038 RMK A01 T00490017  RH  079%=      5-min Rain = 0
KPG1 101258Z 02006KT 05/02 A3038 RMK A01 T00500017  RH  079%=      5-min Rain = 0
KPG1 101259Z 02006KT 05/02 A3038 RMK A01 T00490017  RH  080%=      5-min Rain = 0
KPG1 101300Z 01006KT 05/02 A3038 RMK A01 T00490017  RH  080%=      5-min Rain = 0
KPG1 101301Z 02007KT 05/02 A3038 RMK A01 T00480017  RH  080%=      5-min Rain = 0
KPG1 101302Z 02006KT 05/02 A3038 RMK A01 T00490017  RH  080%=      5-min Rain = 0
KPG1 101303Z 02006KT 05/02 A3038 RMK A01 T00490017  RH  080%=      5-min Rain = 0
KPG1 101304Z 02006KT 05/02 A3038 RMK A01 T00490017  RH  080%=      5-min Rain = 0
KPG1 101305Z 02007KT 05/02 A3038 RMK A01 T00480017  RH  080%=      5-min Rain = 0
KPG1 101306Z 02007KT 05/02 A3038 RMK A01 T00480017  RH  080%=      5-min Rain = 0
KPG1 101307Z 01007KT 05/02 A3038 RMK A01 T00490017  RH  080%=      5-min Rain = 0
KPG1 101308Z 02007KT 05/02 A3038 RMK A01 T00490017  RH  080%=      5-min Rain = 0
KPG1 101309Z 02007KT 05/02 A3038 RMK A01 T00490017  RH  080%=      5-min Rain = 0
KPG1 101310Z 02007KT 05/02 A3038 RMK A01 T00490017  RH  080%=      5-min Rain = 0
KPG1 101311Z 02007KT 05/02 A3038 RMK A01 T00490017  RH  080%=      5-min Rain = 0
KPG1 101312Z 03007KT 05/02 A3038 RMK A01 T00490017  RH  080%=      5-min Rain = 0
KPG1 101313Z 03006KT 05/02 A3038 RMK A01 T00480017  RH  080%=      5-min Rain = 0
KPG1 101314Z 04005KT 05/02 A3038 RMK A01 T00480017  RH  081%=      5-min Rain = 0
KPG1 101315Z 05006KT 05/02 A3038 RMK A01 T00470017  RH  081%=      5-min Rain = 0
KPG1 101316Z 05008KT 05/02 A3038 RMK A01 T00470018  RH  082%=      5-min Rain = 0
KPG1 101317Z 05008KT 05/02 A3038 RMK A01 T00480019  RH  082%=      5-min Rain = 0
KPG1 101318Z 05006KT 05/02 A3038 RMK A01 T00500020  RH  081%=      5-min Rain = 0
KPG1 101319Z 04005KT 05/02 A3038 RMK A01 T00500019  RH  080%=      5-min Rain = 0
KPG1 101320Z 02006KT 05/02 A3038 RMK A01 T00490018  RH  080%=      5-min Rain = 0
KPG1 101321Z 02006KT 05/02 A3038 RMK A01 T00480018  RH  081%=      5-min Rain = 0
KPG1 101322Z 02006KT 05/02 A3038 RMK A01 T00470018  RH  081%=      5-min Rain = 0
KPG1 101323Z 02006KT 05/02 A3038 RMK A01 T00460018  RH  082%=      5-min Rain = 0
KPG1 101324Z 03006KT 05/02 A3038 RMK A01 T00480019  RH  082%=      5-min Rain = 0
KPG1 101325Z 03006KT 05/02 A3038 RMK A01 T00480019  RH  081%=      5-min Rain = 0
KPG1 101326Z 02006KT 05/02 A3038 RMK A01 T00480018  RH  081%=      5-min Rain = 0
KPG1 101327Z 02006KT 05/02 A3038 RMK A01 T00480018  RH  081%=      5-min Rain = 0
KPG1 101328Z 03006KT 05/02 A3038 RMK A01 T00480018  RH  081%=      5-min Rain = 0
KPG1 101329Z 03006KT 05/02 A3038 RMK A01 T00480018  RH  081%=      5-min Rain = 0
KPG1 101330Z 03006KT 05/02 A3038 RMK A01 T00470018  RH  081%=      5-min Rain = 0
KPG1 101331Z 03006KT 05/02 A3038 RMK A01 T00480018  RH  081%=      5-min Rain = 0
KPG1 101332Z 03006KT 05/02 A3038 RMK A01 T00470018  RH  082%=      5-min Rain = 0
KPG1 101333Z 03006KT 05/02 A3038 RMK A01 T00480019  RH  081%=      5-min Rain = 0
KPG1 101334Z 03006KT 05/02 A3038 RMK A01 T00480018  RH  081%=      5-min Rain = 0
KPG1 101335Z 02006KT 05/02 A3038 RMK A01 T00490019  RH  081%=      5-min Rain = 0
KPG1 101336Z 02006KT 05/02 A3038 RMK A01 T00490018  RH  081%=      5-min Rain = 0
KPG1 101337Z 02006KT 05/02 A3038 RMK A01 T00490018  RH  080%=      5-min Rain = 0
KPG1 101338Z 03005KT 05/02 A3038 RMK A01 T00490018  RH  080%=      5-min Rain = 0
KPG1 101339Z 03005KT 05/02 A3038 RMK A01 T00480018  RH  081%=      5-min Rain = 0
KPG1 101340Z 03005KT 05/02 A3038 RMK A01 T00470017  RH  081%=      5-min Rain = 0
KPG1 101341Z 04006KT 05/02 A3038 RMK A01 T00470017  RH  081%=      5-min Rain = 0
KPG1 101342Z 04006KT 05/02 A3038 RMK A01 T00460017  RH  081%=      5-min Rain = 0
KPG1 101343Z 04006KT 05/02 A3038 RMK A01 T00470018  RH  081%=      5-min Rain = 0
KPG1 101344Z 04006KT 05/02 A3038 RMK A01 T00470018  RH  081%=      5-min Rain = 0
KPG1 101345Z 04005KT 05/02 A3038 RMK A01 T00470017  RH  081%=      5-min Rain = 0
KPG1 101346Z 04006KT 05/02 A3038 RMK A01 T00470018  RH  081%=      5-min Rain = 0
KPG1 101347Z 04006KT 05/02 A3039 RMK A01 T00480018  RH  081%=      5-min Rain = 0
KPG1 101348Z 04005KT 05/02 A3039 RMK A01 T00480018  RH  081%=      5-min Rain = 0
KPG1 101349Z 04006KT 05/02 A3039 RMK A01 T00490019  RH  081%=      5-min Rain = 0
KPG1 101350Z 03005KT 05/02 A3039 RMK A01 T00500019  RH  080%=      5-min Rain = 0
KPG1 101351Z 04005KT 05/02 A3039 RMK A01 T00500018  RH  080%=      5-min Rain = 0
KPG1 101352Z 04005KT 05/02 A3039 RMK A01 T00500019  RH  080%=      5-min Rain = 0
KPG1 101353Z 04005KT 05/02 A3039 RMK A01 T00500019  RH  080%=      5-min Rain = 0
KPG1 101354Z 04005KT 05/02 A3039 RMK A01 T00500019  RH  080%=      5-min Rain = 0
KPG1 101355Z 04004KT 05/02 A3039 RMK A01 T00500019  RH  080%=      5-min Rain = 0
KPG1 101356Z 05005KT 05/02 A3039 RMK A01 T00500019  RH  080%=      5-min Rain = 0
KPG1 101357Z 05005KT 05/02 A3039 RMK A01 T00500019  RH  080%=      5-min Rain = 0
KPG1 101358Z 04004KT 05/02 A3039 RMK A01 T00500019  RH  080%=      5-min Rain = 0
KPG1 101359Z 04004KT 05/02 A3039 RMK A01 T00500019  RH  080%=      5-min Rain = 0
KPG1 101400Z 04004KT 05/02 A3039 RMK A01 T00500019  RH  080%=      5-min Rain = 0
KPG1 101401Z 03003KT 05/02 A3039 RMK A01 T00500019  RH  080%=      5-min Rain = 0
KPG1 101402Z 03003KT 05/02 A3039 RMK A01 T00500018  RH  080%=      5-min Rain = 0
KPG1 101403Z 03002KT 05/02 A3039 RMK A01 T00480017  RH  080%=      5-min Rain = 0
KPG1 101404Z 03002KT 05/02 A3039 RMK A01 T00470017  RH  081%=      5-min Rain = 0
KPG1 101405Z 03003KT 05/02 A3039 RMK A01 T00460017  RH  081%=      5-min Rain = 0
KPG1 101406Z 02003KT 05/02 A3039 RMK A01 T00460018  RH  082%=      5-min Rain = 0
KPG1 101407Z 36002KT 05/02 A3039 RMK A01 T00460018  RH  082%=      5-min Rain = 0
KPG1 101408Z 35002KT 05/02 A3039 RMK A01 T00470018  RH  082%=      5-min Rain = 0
KPG1 101409Z 35002KT 05/02 A3039 RMK A01 T00460018  RH  082%=      5-min Rain = 0
KPG1 101410Z 34002KT 05/02 A3039 RMK A01 T00460018  RH  082%=      5-min Rain = 0
KPG1 101411Z 00002KT 05/02 A3039 RMK A01 T00460019  RH  082%=      5-min Rain = 0
KPG1 101412Z 33000KT 05/02 A3039 RMK A01 T00470019  RH  082%=      5-min Rain = 0
KPG1 101413Z 00000KT 05/02 A3039 RMK A01 T00480022  RH  083%=      5-min Rain = 0
KPG1 101414Z 28000KT 05/02 A3039 RMK A01 T00490022  RH  083%=      5-min Rain = 0
KPG1 101415Z 28000KT 05/02 A3039 RMK A01 T00500022  RH  082%=      5-min Rain = 0
KPG1 101416Z 30000KT 05/02 A3039 RMK A01 T00510022  RH  081%=      5-min Rain = 0
KPG1 101417Z 25001KT 05/02 A3039 RMK A01 T00520020  RH  080%=      5-min Rain = 0
KPG1 101418Z 25001KT 05/02 A3039 RMK A01 T00520020  RH  080%=      5-min Rain = 0
KPG1 101419Z 24001KT 05/02 A3039 RMK A01 T00520020  RH  080%=      5-min Rain = 0
KPG1 101420Z 20000KT 05/02 A3039 RMK A01 T00520020  RH  080%=      5-min Rain = 0
KPG1 101421Z 17000KT 05/02 A3039 RMK A01 T00530022  RH  080%=      5-min Rain = 0
KPG1 101422Z 13000KT 05/02 A3039 RMK A01 T00540022  RH  080%=      5-min Rain = 0
KPG1 101423Z 13001KT 05/02 A3039 RMK A01 T00540022  RH  080%=      5-min Rain = 0
KPG1 101424Z 13000KT 05/02 A3039 RMK A01 T00540020  RH  079%=      5-min Rain = 0
KPG1 101425Z 13001KT 05/02 A3039 RMK A01 T00530021  RH  079%=      5-min Rain = 0
KPG1 101426Z 13000KT 05/02 A3039 RMK A01 T00530021  RH  079%=      5-min Rain = 0
KPG1 101427Z 13001KT 05/02 A3039 RMK A01 T00530021  RH  080%=      5-min Rain = 0
KPG1 101428Z 14001KT 05/02 A3039 RMK A01 T00530021  RH  079%=      5-min Rain = 0
KPG1 101429Z 15001KT 05/02 A3039 RMK A01 T00530020  RH  079%=      5-min Rain = 0
KPG1 101430Z 16001KT 05/02 A3039 RMK A01 T00540021  RH  079%=      5-min Rain = 0
KPG1 101431Z 17001KT 05/02 A304 RMK A01 T00540021  RH  079%=      5-min Rain = 0
KPG1 101432Z 17001KT 06/02 A304 RMK A01 T00550022  RH  079%=      5-min Rain = 0
KPG1 101433Z 16001KT 06/02 A304 RMK A01 T00550022  RH  079%=      5-min Rain = 0
KPG1 101434Z 15000KT 06/02 A304 RMK A01 T00550021  RH  079%=      5-min Rain = 0
KPG1 101435Z 15000KT 06/02 A304 RMK A01 T00550022  RH  079%=      5-min Rain = 0
KPG1 101436Z 13000KT 06/02 A304 RMK A01 T00550022  RH  079%=      5-min Rain = 0
KPG1 101437Z 13001KT 06/02 A304 RMK A01 T00560023  RH  079%=      5-min Rain = 0
KPG1 101438Z 15001KT 06/02 A304 RMK A01 T00570023  RH  079%=      5-min Rain = 0
KPG1 101439Z 12001KT 06/02 A304 RMK A01 T00570022  RH  078%=      5-min Rain = 0
KPG1 101440Z 12002KT 06/02 A304 RMK A01 T00560022  RH  078%=      5-min Rain = 0
KPG1 101441Z 12002KT 06/02 A304 RMK A01 T00560022  RH  079%=      5-min Rain = 0
KPG1 101442Z 12003KT 06/02 A304 RMK A01 T00560023  RH  079%=      5-min Rain = 0
KPG1 101443Z 12003KT 06/02 A304 RMK A01 T00560023  RH  079%=      5-min Rain = 0
KPG1 101444Z 11002KT 06/02 A304 RMK A01 T00570023  RH  079%=      5-min Rain = 0
KPG1 101445Z 13002KT 06/02 A304 RMK A01 T00570024  RH  079%=      5-min Rain = 0
KPG1 101446Z 14002KT 06/02 A304 RMK A01 T00580024  RH  079%=      5-min Rain = 0
KPG1 101447Z 13002KT 06/03 A304 RMK A01 T00590025  RH  079%=      5-min Rain = 0
KPG1 101448Z 14001KT 06/03 A304 RMK A01 T00600026  RH  079%=      5-min Rain = 0
KPG1 101449Z 15001KT 06/03 A304 RMK A01 T00600025  RH  078%=      5-min Rain = 0
KPG1 101450Z 19001KT 06/03 A304 RMK A01 T00610026  RH  078%=      5-min Rain = 0
KPG1 101451Z 18002KT 06/03 A304 RMK A01 T00620025  RH  078%=      5-min Rain = 0
KPG1 101452Z 18002KT 06/03 A304 RMK A01 T00620026  RH  077%=      5-min Rain = 0
KPG1 101453Z 19002KT 06/03 A304 RMK A01 T00630026  RH  077%=      5-min Rain = 0
KPG1 101454Z 17002KT 06/03 A304 RMK A01 T00640027  RH  077%=      5-min Rain = 0
KPG1 101455Z 16002KT 06/03 A304 RMK A01 T00640027  RH  077%=      5-min Rain = 0
KPG1 101456Z 16002KT 07/03 A304 RMK A01 T00650027  RH  077%=      5-min Rain = 0
KPG1 101457Z 16001KT 07/03 A304 RMK A01 T00650027  RH  077%=      5-min Rain = 0
KPG1 101458Z 14001KT 07/03 A304 RMK A01 T00660028  RH  077%=      5-min Rain = 0
KPG1 101459Z 14002KT 07/03 A3041 RMK A01 T00680029  RH  076%=      5-min Rain = 0
KPG1 101500Z 15002KT 07/03 A3041 RMK A01 T00690029  RH  076%=      5-min Rain = 0
KPG1 101501Z 16002KT 07/03 A3041 RMK A01 T00690028  RH  075%=      5-min Rain = 0
KPG1 101502Z 18002KT 07/03 A3041 RMK A01 T00690028  RH  075%=      5-min Rain = 0
KPG1 101503Z 17001KT 07/03 A3041 RMK A01 T00690027  RH  074%=      5-min Rain = 0
KPG1 101504Z 19002KT 07/03 A3041 RMK A01 T00690027  RH  075%=      5-min Rain = 0
KPG1 101505Z 20001KT 07/03 A3041 RMK A01 T00690027  RH  075%=      5-min Rain = 0
KPG1 101506Z 17001KT 07/03 A3041 RMK A01 T00680027  RH  075%=      5-min Rain = 0
KPG1 101507Z 18001KT 07/03 A3041 RMK A01 T00680028  RH  076%=      5-min Rain = 0
KPG1 101508Z 18001KT 07/03 A3041 RMK A01 T00690028  RH  075%=      5-min Rain = 0
KPG1 101509Z 18001KT 07/03 A3041 RMK A01 T00710029  RH  075%=      5-min Rain = 0
KPG1 101510Z 18002KT 07/03 A3041 RMK A01 T00720029  RH  074%=      5-min Rain = 0
KPG1 101511Z 17002KT 07/03 A3041 RMK A01 T00730030  RH  074%=      5-min Rain = 0
KPG1 101512Z 16002KT 08/03 A3041 RMK A01 T00760033  RH  074%=      5-min Rain = 0
KPG1 101513Z 16002KT 08/03 A3041 RMK A01 T00780032  RH  073%=      5-min Rain = 0
KPG1 101514Z 16002KT 08/03 A3041 RMK A01 T00790030  RH  071%=      5-min Rain = 0
KPG1 101515Z 14002KT 08/03 A3041 RMK A01 T00790029  RH  071%=      5-min Rain = 0
KPG1 101516Z 14002KT 08/03 A3041 RMK A01 T00790029  RH  071%=      5-min Rain = 0
KPG1 101517Z 14002KT 08/03 A3041 RMK A01 T00800030  RH  071%=      5-min Rain = 0
KPG1 101518Z 15002KT 08/03 A3041 RMK A01 T00800028  RH  070%=      5-min Rain = 0
KPG1 101519Z 14002KT 08/03 A3042 RMK A01 T00780026  RH  070%=      5-min Rain = 0
KPG1 101520Z 14002KT 08/03 A3042 RMK A01 T00770027  RH  071%=      5-min Rain = 0
KPG1 101521Z 14001KT 08/03 A3042 RMK A01 T00770027  RH  071%=      5-min Rain = 0
KPG1 101522Z 14002KT 08/03 A3042 RMK A01 T00770027  RH  071%=      5-min Rain = 0
KPG1 101523Z 15002KT 08/03 A3042 RMK A01 T00770027  RH  071%=      5-min Rain = 0
KPG1 101524Z 16003KT 08/03 A3042 RMK A01 T00790028  RH  070%=      5-min Rain = 0
KPG1 101525Z 17003KT 08/03 A3042 RMK A01 T00790026  RH  069%=      5-min Rain = 0
KPG1 101526Z 18003KT 08/03 A3042 RMK A01 T00770026  RH  070%=      5-min Rain = 0
KPG1 101527Z 20003KT 08/03 A3042 RMK A01 T00750026  RH  071%=      5-min Rain = 0
KPG1 101528Z 20003KT 07/03 A3042 RMK A01 T00740027  RH  072%=      5-min Rain = 0
KPG1 101529Z 20003KT 07/03 A3042 RMK A01 T00740028  RH  073%=      5-min Rain = 0
KPG1 101530Z 20003KT 07/03 A3042 RMK A01 T00740028  RH  073%=      5-min Rain = 0
KPG1 101531Z 16002KT 08/03 A3042 RMK A01 T00750029  RH  073%=      5-min Rain = 0
KPG1 101532Z 14003KT 08/03 A3042 RMK A01 T00780031  RH  072%=      5-min Rain = 0
KPG1 101533Z 13003KT 08/03 A3042 RMK A01 T00810031  RH  071%=      5-min Rain = 0
KPG1 101534Z 13003KT 08/03 A3042 RMK A01 T00810028  RH  069%=      5-min Rain = 0
KPG1 101535Z 13004KT 08/03 A3042 RMK A01 T00790026  RH  069%=      5-min Rain = 0
KPG1 101536Z 14003KT 08/03 A3042 RMK A01 T00780026  RH  070%=      5-min Rain = 0
KPG1 101537Z 12003KT 08/03 A3042 RMK A01 T00780025  RH  069%=      5-min Rain = 0
KPG1 101538Z 13001KT 08/03 A3042 RMK A01 T00780025  RH  069%=      5-min Rain = 0
KPG1 101539Z 14000KT 08/03 A3042 RMK A01 T00780025  RH  069%=      5-min Rain = 0
KPG1 101540Z 17002KT 08/03 A3042 RMK A01 T00770025  RH  069%=      5-min Rain = 0
KPG1 101541Z 14002KT 08/03 A3042 RMK A01 T00770027  RH  070%=      5-min Rain = 0
KPG1 101542Z 14002KT 08/03 A3042 RMK A01 T00790027  RH  070%=      5-min Rain = 0
KPG1 101543Z 13003KT 08/03 A3042 RMK A01 T00820030  RH  070%=      5-min Rain = 0
KPG1 101544Z 10003KT 08/03 A3042 RMK A01 T00840028  RH  068%=      5-min Rain = 0
KPG1 101545Z 07003KT 08/03 A3042 RMK A01 T00830028  RH  068%=      5-min Rain = 0
KPG1 101546Z 05004KT 08/03 A3042 RMK A01 T00840030  RH  069%=      5-min Rain = 0
KPG1 101547Z 05003KT 08/03 A3042 RMK A01 T00840031  RH  069%=      5-min Rain = 0
KPG1 101548Z 05004KT 09/03 A3042 RMK A01 T00860031  RH  068%=      5-min Rain = 0
KPG1 101549Z 04004KT 09/03 A3042 RMK A01 T00850028  RH  067%=      5-min Rain = 0
KPG1 101550Z 04003KT 08/03 A3042 RMK A01 T00830025  RH  067%=      5-min Rain = 0
KPG1 101551Z 04004KT 08/03 A3042 RMK A01 T00820026  RH  068%=      5-min Rain = 0
KPG1 101552Z 01003KT 08/03 A3042 RMK A01 T00830026  RH  068%=      5-min Rain = 0
KPG1 101553Z 03004KT 08/03 A3042 RMK A01 T00830025  RH  067%=      5-min Rain = 0
KPG1 101554Z 03004KT 08/02 A3042 RMK A01 T00830024  RH  066%=      5-min Rain = 0
KPG1 101555Z 04004KT 08/02 A3042 RMK A01 T00830023  RH  066%=      5-min Rain = 0
KPG1 101556Z 04004KT 08/02 A3042 RMK A01 T00830024  RH  066%=      5-min Rain = 0
KPG1 101557Z 05004KT 08/03 A3042 RMK A01 T00840025  RH  066%=      5-min Rain = 0
KPG1 101558Z 04004KT 09/03 A3042 RMK A01 T00850025  RH  066%=      5-min Rain = 0
KPG1 101559Z 06004KT 08/02 A3042 RMK A01 T00840023  RH  065%=      5-min Rain = 0
KPG1 101600Z 04004KT 08/03 A3042 RMK A01 T00840027  RH  067%=      5-min Rain = 0
KPG1 101601Z 06006KT 09/03 A3042 RMK A01 T00860026  RH  066%=      5-min Rain = 0
KPG1 101602Z 06004KT 09/02 A3042 RMK A01 T00860024  RH  065%=      5-min Rain = 0
KPG1 101603Z 06004KT 09/02 A3042 RMK A01 T00850024  RH  066%=      5-min Rain = 0
KPG1 101604Z 07005KT 09/02 A3042 RMK A01 T00850024  RH  066%=      5-min Rain = 0
KPG1 101605Z 07006KT 09/02 A3042 RMK A01 T00850023  RH  065%=      5-min Rain = 0
KPG1 101606Z 06005KT 08/02 A3042 RMK A01 T00830021  RH  065%=      5-min Rain = 0
KPG1 101607Z 07005KT 08/02 A3042 RMK A01 T00810021  RH  066%=      5-min Rain = 0
KPG1 101608Z 06005KT 08/02 A3042 RMK A01 T00810021  RH  066%=      5-min Rain = 0
KPG1 101609Z 07006KT 08/02 A3042 RMK A01 T00820024  RH  067%=      5-min Rain = 0
KPG1 101610Z 07005KT 08/02 A3042 RMK A01 T00840024  RH  066%=      5-min Rain = 0
KPG1 101611Z 06005KT 08/02 A3042 RMK A01 T00840023  RH  065%=      5-min Rain = 0
KPG1 101612Z 05007KT 08/02 A3042 RMK A01 T00840023  RH  066%=      5-min Rain = 0
KPG1 101613Z 07005KT 08/02 A3042 RMK A01 T00840022  RH  065%=      5-min Rain = 0
KPG1 101614Z 06006KT 08/02 A3042 RMK A01 T00840022  RH  065%=      5-min Rain = 0
KPG1 101615Z 07007KT 08/02 A3042 RMK A01 T00840019  RH  064%=      5-min Rain = 0
KPG1 101616Z 07007KT 08/02 A3042 RMK A01 T00840019  RH  064%=      5-min Rain = 0
KPG1 101617Z 06006KT 08/02 A3042 RMK A01 T00840019  RH  064%=      5-min Rain = 0
KPG1 101618Z 05006KT 08/02 A3042 RMK A01 T00840019  RH  063%=      5-min Rain = 0
KPG1 101619Z 06006KT 08/02 A3042 RMK A01 T00840018  RH  063%=      5-min Rain = 0
KPG1 101620Z 07005KT 08/02 A3042 RMK A01 T00820018  RH  064%=      5-min Rain = 0
KPG1 101621Z 07005KT 08/02 A3042 RMK A01 T00820020  RH  065%=      5-min Rain = 0
KPG1 101622Z 06005KT 08/02 A3042 RMK A01 T00820020  RH  065%=      5-min Rain = 0
KPG1 101623Z 06005KT 08/02 A3042 RMK A01 T00820022  RH  066%=      5-min Rain = 0
KPG1 101624Z 07005KT 09/02 A3042 RMK A01 T00850024  RH  065%=      5-min Rain = 0
KPG1 101625Z 07005KT 08/02 A3042 RMK A01 T00840023  RH  065%=      5-min Rain = 0
KPG1 101626Z 03004KT 09/03 A3042 RMK A01 T00860025  RH  065%=      5-min Rain = 0
KPG1 101627Z 02004KT 09/02 A3042 RMK A01 T00880023  RH  064%=      5-min Rain = 0
KPG1 101628Z 02004KT 09/02 A3042 RMK A01 T00870019  RH  063%=      5-min Rain = 0
KPG1 101629Z 03004KT 09/02 A3042 RMK A01 T00850020  RH  063%=      5-min Rain = 0
KPG1 101630Z 05004KT 09/02 A3042 RMK A01 T00850021  RH  064%=      5-min Rain = 0
KPG1 101631Z 05003KT 09/03 A3042 RMK A01 T00860025  RH  065%=      5-min Rain = 0
KPG1 101632Z 08004KT 09/03 A3042 RMK A01 T00900025  RH  064%=      5-min Rain = 0
KPG1 101633Z 03005KT 09/03 A3042 RMK A01 T00900025  RH  064%=      5-min Rain = 0
KPG1 101634Z 04006KT 09/02 A3042 RMK A01 T00900024  RH  063%=      5-min Rain = 0
KPG1 101635Z 04006KT 09/02 A3042 RMK A01 T00870022  RH  063%=      5-min Rain = 0
KPG1 101636Z 05005KT 09/02 A3042 RMK A01 T00860022  RH  064%=      5-min Rain = 0
KPG1 101637Z 03005KT 09/02 A3042 RMK A01 T00850022  RH  065%=      5-min Rain = 0
KPG1 101638Z 06004KT 09/02 A3042 RMK A01 T00850022  RH  065%=      5-min Rain = 0
KPG1 101639Z 05004KT 09/02 A3042 RMK A01 T00850024  RH  065%=      5-min Rain = 0
KPG1 101640Z 05002KT 09/02 A3042 RMK A01 T00860022  RH  064%=      5-min Rain = 0
KPG1 101641Z 05004KT 09/02 A3042 RMK A01 T00870024  RH  065%=      5-min Rain = 0
KPG1 101642Z 04004KT 09/03 A3042 RMK A01 T00880025  RH  064%=      5-min Rain = 0
KPG1 101643Z 04006KT 09/03 A3042 RMK A01 T00890025  RH  064%=      5-min Rain = 0
KPG1 101644Z 04006KT 09/03 A3042 RMK A01 T00910027  RH  064%=      5-min Rain = 0
KPG1 101645Z 05005KT 09/02 A3042 RMK A01 T00910024  RH  063%=      5-min Rain = 0
KPG1 101646Z 06005KT 09/02 A3042 RMK A01 T00890023  RH  063%=      5-min Rain = 0
KPG1 101647Z 05004KT 09/03 A3042 RMK A01 T00880025  RH  064%=      5-min Rain = 0
KPG1 101648Z 04004KT 09/03 A3042 RMK A01 T00910027  RH  064%=      5-min Rain = 0
KPG1 101649Z 05005KT 09/03 A3042 RMK A01 T00920026  RH  063%=      5-min Rain = 0
KPG1 101650Z 05004KT 09/02 A3042 RMK A01 T00910023  RH  063%=      5-min Rain = 0
KPG1 101651Z 05003KT 09/02 A3042 RMK A01 T00900023  RH  063%=      5-min Rain = 0
KPG1 101652Z 06006KT 09/03 A3042 RMK A01 T00900025  RH  064%=      5-min Rain = 0
KPG1 101653Z 05006KT 09/03 A3042 RMK A01 T00900025  RH  064%=      5-min Rain = 0
KPG1 101654Z 05006KT 09/03 A3042 RMK A01 T00910027  RH  064%=      5-min Rain = 0
KPG1 101655Z 03005KT 09/03 A3042 RMK A01 T00910025  RH  063%=      5-min Rain = 0
KPG1 101656Z 05004KT 09/03 A3042 RMK A01 T00910026  RH  063%=      5-min Rain = 0
KPG1 101657Z 04003KT 09/03 A3042 RMK A01 T00910026  RH  064%=      5-min Rain = 0
KPG1 101658Z 05004KT 09/03 A3042 RMK A01 T00920026  RH  063%=      5-min Rain = 0
KPG1 101659Z 04003KT 09/02 A3042 RMK A01 T00910023  RH  063%=      5-min Rain = 0
KPG1 101700Z 04005KT 09/03 A3041 RMK A01 T00900025  RH  064%=      5-min Rain = 0
KPG1 101701Z 04004KT 09/03 A3041 RMK A01 T00910025  RH  064%=      5-min Rain = 0
KPG1 101702Z 06005KT 09/03 A3041 RMK A01 T00920027  RH  064%=      5-min Rain = 0
KPG1 101703Z 06005KT 09/03 A3041 RMK A01 T00920026  RH  063%=      5-min Rain = 0
KPG1 101704Z 04005KT 09/03 A3041 RMK A01 T00910026  RH  064%=      5-min Rain = 0
KPG1 101705Z 02006KT 09/03 A3041 RMK A01 T00930028  RH  064%=      5-min Rain = 0
KPG1 101706Z 02005KT 09/03 A3041 RMK A01 T00930026  RH  063%=      5-min Rain = 0
KPG1 101707Z 04004KT 09/03 A3041 RMK A01 T00920027  RH  064%=      5-min Rain = 0
KPG1 101708Z 04004KT 09/03 A3041 RMK A01 T00940029  RH  064%=      5-min Rain = 0
KPG1 101709Z 04004KT 10/03 A3041 RMK A01 T00950028  RH  063%=      5-min Rain = 0
KPG1 101710Z 03004KT 10/03 A3041 RMK A01 T00950027  RH  062%=      5-min Rain = 0
KPG1 101711Z 03004KT 10/03 A3041 RMK A01 T00950027  RH  062%=      5-min Rain = 0
KPG1 101712Z 03004KT 10/03 A3041 RMK A01 T00950027  RH  062%=      5-min Rain = 0
KPG1 101713Z 04003KT 09/03 A3041 RMK A01 T00940027  RH  063%=      5-min Rain = 0
KPG1 101714Z 04003KT 10/03 A3041 RMK A01 T00960031  RH  064%=      5-min Rain = 0
KPG1 101715Z 04004KT 10/03 A3041 RMK A01 T00960028  RH  063%=      5-min Rain = 0
KPG1 101716Z 04004KT 10/03 A3041 RMK A01 T00950027  RH  063%=      5-min Rain = 0
KPG1 101717Z 03004KT 10/03 A3041 RMK A01 T00950029  RH  063%=      5-min Rain = 0
KPG1 101718Z 04005KT 10/03 A3041 RMK A01 T00960030  RH  063%=      5-min Rain = 0
KPG1 101719Z 02005KT 10/03 A3041 RMK A01 T00960028  RH  062%=      5-min Rain = 0
KPG1 101720Z 04004KT 10/03 A304 RMK A01 T00950029  RH  063%=      5-min Rain = 0
KPG1 101721Z 02003KT 10/03 A304 RMK A01 T00960028  RH  062%=      5-min Rain = 0
KPG1 101722Z 02004KT 10/03 A304 RMK A01 T00960029  RH  063%=      5-min Rain = 0
KPG1 101723Z 01004KT 10/03 A304 RMK A01 T00970030  RH  063%=      5-min Rain = 0
KPG1 101724Z 02004KT 10/03 A304 RMK A01 T00970029  RH  062%=      5-min Rain = 0
KPG1 101725Z 00004KT 10/03 A304 RMK A01 T00960028  RH  062%=      5-min Rain = 0
KPG1 101726Z 00004KT 10/03 A304 RMK A01 T00960028  RH  063%=      5-min Rain = 0
KPG1 101727Z 00003KT 10/03 A304 RMK A01 T00960029  RH  063%=      5-min Rain = 0
KPG1 101728Z 02004KT 10/03 A304 RMK A01 T00980031  RH  063%=      5-min Rain = 0
KPG1 101729Z 02003KT 10/03 A304 RMK A01 T01000033  RH  063%=      5-min Rain = 0
KPG1 101730Z 02003KT 10/03 A304 RMK A01 T01030033  RH  062%=      5-min Rain = 0
KPG1 101731Z 34003KT 10/03 A304 RMK A01 T01030031  RH  061%=      5-min Rain = 0
KPG1 101732Z 01004KT 10/03 A304 RMK A01 T01030031  RH  061%=      5-min Rain = 0
KPG1 101733Z 00003KT 10/03 A304 RMK A01 T01020030  RH  061%=      5-min Rain = 0
KPG1 101734Z 35003KT 10/03 A304 RMK A01 T01010029  RH  061%=      5-min Rain = 0
KPG1 101735Z 01003KT 10/03 A304 RMK A01 T01000029  RH  061%=      5-min Rain = 0
KPG1 101736Z 34003KT 10/03 A304 RMK A01 T01000029  RH  061%=      5-min Rain = 0
KPG1 101737Z 35002KT 10/03 A304 RMK A01 T00990030  RH  062%=      5-min Rain = 0
KPG1 101738Z 34002KT 10/03 A304 RMK A01 T00990030  RH  062%=      5-min Rain = 0
KPG1 101739Z 35003KT 10/03 A304 RMK A01 T01010032  RH  062%=      5-min Rain = 0
KPG1 101740Z 36002KT 10/03 A304 RMK A01 T01020031  RH  061%=      5-min Rain = 0
KPG1 101741Z 35002KT 10/03 A304 RMK A01 T01030030  RH  061%=      5-min Rain = 0
KPG1 101742Z 01002KT 10/03 A304 RMK A01 T01020029  RH  060%=      5-min Rain = 0
KPG1 101743Z 02001KT 10/03 A304 RMK A01 T01020032  RH  062%=      5-min Rain = 0
KPG1 101744Z 03001KT 11/04 A304 RMK A01 T01050035  RH  062%=      5-min Rain = 0
KPG1 101745Z 03001KT 11/04 A304 RMK A01 T01080036  RH  061%=      5-min Rain = 0
KPG1 101746Z 25001KT 11/04 A304 RMK A01 T01100035  RH  060%=      5-min Rain = 0
KPG1 101747Z 21000KT 11/04 A304 RMK A01 T01120035  RH  059%=      5-min Rain = 0
KPG1 101748Z 19003KT 11/03 A304 RMK A01 T01120034  RH  059%=      5-min Rain = 0
KPG1 101749Z 20004KT 11/03 A304 RMK A01 T01120034  RH  059%=      5-min Rain = 0
KPG1 101750Z 19004KT 11/04 A304 RMK A01 T01120036  RH  059%=      5-min Rain = 0
KPG1 101751Z 20003KT 11/03 A304 RMK A01 T01120033  RH  058%=      5-min Rain = 0
KPG1 101752Z 21002KT 11/03 A304 RMK A01 T01110034  RH  059%=      5-min Rain = 0
KPG1 101753Z 21003KT 11/03 A304 RMK A01 T01110033  RH  058%=      5-min Rain = 0
KPG1 101754Z 16003KT 11/03 A3039 RMK A01 T01110033  RH  059%=      5-min Rain = 0
KPG1 101755Z 16003KT 11/03 A3039 RMK A01 T01130034  RH  059%=      5-min Rain = 0
KPG1 101756Z 15001KT 11/03 A3039 RMK A01 T01130031  RH  057%=      5-min Rain = 0
KPG1 101757Z 11001KT 11/03 A3039 RMK A01 T01120031  RH  058%=      5-min Rain = 0
KPG1 101758Z 33001KT 11/03 A3039 RMK A01 T01120032  RH  058%=      5-min Rain = 0
KPG1 101759Z 20002KT 11/04 A3039 RMK A01 T01120035  RH  059%=      5-min Rain = 0
KPG1 101800Z 21002KT 12/04 A3039 RMK A01 T01150036  RH  058%=      5-min Rain = 0
KPG1 101801Z 21002KT 12/03 A3039 RMK A01 T01160034  RH  057%=      5-min Rain = 0
KPG1 101802Z 19003KT 12/04 A3039 RMK A01 T01160036  RH  058%=      5-min Rain = 0
KPG1 101803Z 19005KT 12/04 A3039 RMK A01 T01150035  RH  058%=      5-min Rain = 0
KPG1 101804Z 19004KT 12/04 A3038 RMK A01 T01160036  RH  058%=      5-min Rain = 0
KPG1 101805Z 18003KT 12/04 A3038 RMK A01 T01160035  RH  057%=      5-min Rain = 0
KPG1 101806Z 19003KT 12/03 A3038 RMK A01 T01150033  RH  057%=      5-min Rain = 0
KPG1 101807Z 20002KT 11/03 A3038 RMK A01 T01140033  RH  058%=      5-min Rain = 0
KPG1 101808Z 17001KT 11/04 A3038 RMK A01 T01130036  RH  059%=      5-min Rain = 0
KPG1 101809Z 27002KT 12/04 A3038 RMK A01 T01150037  RH  059%=      5-min Rain = 0
KPG1 101810Z 25003KT 12/03 A3038 RMK A01 T01150034  RH  057%=      5-min Rain = 0
KPG1 101811Z 18003KT 11/04 A3038 RMK A01 T01140036  RH  059%=      5-min Rain = 0
KPG1 101812Z 18003KT 11/03 A3038 RMK A01 T01140034  RH  058%=      5-min Rain = 0
KPG1 101813Z 19003KT 12/04 A3038 RMK A01 T01150038  RH  059%=      5-min Rain = 0
KPG1 101814Z 20001KT 12/04 A3038 RMK A01 T01170035  RH  057%=      5-min Rain = 0
KPG1 101815Z 26001KT 12/03 A3038 RMK A01 T01170033  RH  057%=      5-min Rain = 0
KPG1 101816Z 23002KT 12/04 A3038 RMK A01 T01170035  RH  057%=      5-min Rain = 0
KPG1 101817Z 22002KT 12/04 A3038 RMK A01 T01170037  RH  058%=      5-min Rain = 0
KPG1 101818Z 20002KT 12/04 A3038 RMK A01 T01190039  RH  058%=      5-min Rain = 0
KPG1 101819Z 19005KT 12/04 A3038 RMK A01 T01210041  RH  058%=      5-min Rain = 0
KPG1 101820Z 18004KT 12/04 A3038 RMK A01 T01210038  RH  057%=      5-min Rain = 0
KPG1 101821Z 16003KT 12/04 A3038 RMK A01 T01210037  RH  056%=      5-min Rain = 0
KPG1 101822Z 19005KT 12/04 A3038 RMK A01 T01210038  RH  057%=      5-min Rain = 0
KPG1 101823Z 19003KT 12/04 A3038 RMK A01 T01200037  RH  057%=      5-min Rain = 0
KPG1 101824Z 22003KT 12/04 A3038 RMK A01 T01200039  RH  058%=      5-min Rain = 0
KPG1 101825Z 22005KT 12/04 A3038 RMK A01 T01230041  RH  057%=      5-min Rain = 0
KPG1 101826Z 23003KT 12/04 A3038 RMK A01 T01240039  RH  056%=      5-min Rain = 0
KPG1 101827Z 23005KT 12/04 A3038 RMK A01 T01230037  RH  056%=      5-min Rain = 0
KPG1 101828Z 22005KT 12/04 A3038 RMK A01 T01200036  RH  056%=      5-min Rain = 0
KPG1 101829Z 24003KT 12/04 A3038 RMK A01 T01180035  RH  057%=      5-min Rain = 0
KPG1 101830Z 24003KT 12/03 A3038 RMK A01 T01160033  RH  057%=      5-min Rain = 0
KPG1 101831Z 15003KT 12/04 A3037 RMK A01 T01160037  RH  058%=      5-min Rain = 0
KPG1 101832Z 14003KT 12/04 A3037 RMK A01 T01170035  RH  057%=      5-min Rain = 0
KPG1 101833Z 15002KT 12/04 A3037 RMK A01 T01180035  RH  057%=      5-min Rain = 0
KPG1 101834Z 16001KT 12/04 A3037 RMK A01 T01190035  RH  057%=      5-min Rain = 0
KPG1 101835Z 19000KT 12/04 A3037 RMK A01 T01200036  RH  056%=      5-min Rain = 0
KPG1 101836Z 18001KT 12/03 A3037 RMK A01 T01200034  RH  056%=      5-min Rain = 0
KPG1 101837Z 18004KT 12/04 A3037 RMK A01 T01200037  RH  056%=      5-min Rain = 0
KPG1 101838Z 16004KT 12/04 A3037 RMK A01 T01220039  RH  057%=      5-min Rain = 0
KPG1 101839Z 14004KT 13/04 A3037 RMK A01 T01250040  RH  056%=      5-min Rain = 0
KPG1 101840Z 15003KT 13/04 A3037 RMK A01 T01260040  RH  056%=      5-min Rain = 0
KPG1 101841Z 15003KT 13/04 A3036 RMK A01 T01270038  RH  055%=      5-min Rain = 0
KPG1 101842Z 13004KT 13/04 A3036 RMK A01 T01270038  RH  055%=      5-min Rain = 0
KPG1 101843Z 14003KT 13/04 A3036 RMK A01 T01250036  RH  055%=      5-min Rain = 0
KPG1 101844Z 12002KT 12/04 A3036 RMK A01 T01230036  RH  055%=      5-min Rain = 0
KPG1 101845Z 10002KT 12/04 A3036 RMK A01 T01220037  RH  056%=      5-min Rain = 0
KPG1 101846Z 07003KT 12/04 A3036 RMK A01 T01230037  RH  056%=      5-min Rain = 0
KPG1 101847Z 06003KT 12/04 A3036 RMK A01 T01230037  RH  056%=      5-min Rain = 0
KPG1 101848Z 05002KT 12/04 A3036 RMK A01 T01230036  RH  055%=      5-min Rain = 0
KPG1 101849Z 06001KT 12/04 A3036 RMK A01 T01220036  RH  056%=      5-min Rain = 0
KPG1 101850Z 03001KT 12/04 A3036 RMK A01 T01220035  RH  055%=      5-min Rain = 0
KPG1 101851Z 04002KT 12/04 A3036 RMK A01 T01210035  RH  056%=      5-min Rain = 0
KPG1 101852Z 03002KT 12/04 A3036 RMK A01 T01210035  RH  056%=      5-min Rain = 0
KPG1 101853Z 04002KT 12/03 A3036 RMK A01 T01200034  RH  055%=      5-min Rain = 0
KPG1 101854Z 08002KT 12/03 A3035 RMK A01 T01190034  RH  056%=      5-min Rain = 0
KPG1 101855Z 09002KT 12/04 A3035 RMK A01 T01190035  RH  056%=      5-min Rain = 0
KPG1 101856Z 04001KT 12/04 A3035 RMK A01 T01200036  RH  056%=      5-min Rain = 0
KPG1 101857Z 01000KT 12/04 A3035 RMK A01 T01220036  RH  056%=      5-min Rain = 0
KPG1 101858Z 02002KT 12/04 A3035 RMK A01 T01230037  RH  056%=      5-min Rain = 0
KPG1 101859Z 08001KT 12/04 A3035 RMK A01 T01240038  RH  056%=      5-min Rain = 0
KPG1 101900Z 13002KT 13/04 A3035 RMK A01 T01260040  RH  056%=      5-min Rain = 0
KPG1 101901Z 09001KT 13/04 A3035 RMK A01 T01300039  RH  054%=      5-min Rain = 0
KPG1 101902Z 16003KT 13/04 A3035 RMK A01 T01300039  RH  054%=      5-min Rain = 0
KPG1 101903Z 16002KT 13/04 A3035 RMK A01 T01300039  RH  054%=      5-min Rain = 0
KPG1 101904Z 16002KT 13/04 A3035 RMK A01 T01310040  RH  054%=      5-min Rain = 0
KPG1 101905Z 17001KT 13/04 A3035 RMK A01 T01320038  RH  053%=      5-min Rain = 0
KPG1 101906Z 08001KT 13/04 A3035 RMK A01 T01330041  RH  054%=      5-min Rain = 0
KPG1 101907Z 02002KT 13/04 A3035 RMK A01 T01340042  RH  053%=      5-min Rain = 0
KPG1 101908Z 27001KT 13/04 A3035 RMK A01 T01340039  RH  053%=      5-min Rain = 0
KPG1 101909Z 19002KT 13/04 A3034 RMK A01 T01330041  RH  054%=      5-min Rain = 0
KPG1 101910Z 16004KT 14/05 A3034 RMK A01 T01350045  RH  054%=      5-min Rain = 0
KPG1 101911Z 16005KT 14/04 A3034 RMK A01 T01380043  RH  053%=      5-min Rain = 0
KPG1 101912Z 15005KT 14/04 A3034 RMK A01 T01360042  RH  053%=      5-min Rain = 0
KPG1 101913Z 16003KT 14/04 A3034 RMK A01 T01350043  RH  054%=      5-min Rain = 0
KPG1 101914Z 16004KT 14/04 A3034 RMK A01 T01360044  RH  053%=      5-min Rain = 0
KPG1 101915Z 16003KT 14/04 A3034 RMK A01 T01370042  RH  053%=      5-min Rain = 0
KPG1 101916Z 17003KT 14/04 A3034 RMK A01 T01360042  RH  053%=      5-min Rain = 0
KPG1 101917Z 17003KT 14/04 A3034 RMK A01 T01350041  RH  053%=      5-min Rain = 0
KPG1 101918Z 16002KT 13/04 A3034 RMK A01 T01340041  RH  053%=      5-min Rain = 0
KPG1 101919Z 10002KT 13/04 A3034 RMK A01 T01340041  RH  053%=      5-min Rain = 0
KPG1 101920Z 12001KT 13/04 A3034 RMK A01 T01330042  RH  054%=      5-min Rain = 0
KPG1 101921Z 11002KT 14/05 A3034 RMK A01 T01350047  RH  055%=      5-min Rain = 0
KPG1 101922Z 18003KT 14/05 A3034 RMK A01 T01390046  RH  054%=      5-min Rain = 0
KPG1 101923Z 21002KT 14/04 A3034 RMK A01 T01400044  RH  052%=      5-min Rain = 0
KPG1 101924Z 23002KT 14/04 A3033 RMK A01 T01370041  RH  052%=      5-min Rain = 0
KPG1 101925Z 23003KT 14/04 A3033 RMK A01 T01350043  RH  054%=      5-min Rain = 0
KPG1 101926Z 24004KT 14/04 A3033 RMK A01 T01350043  RH  054%=      5-min Rain = 0
KPG1 101927Z 21004KT 13/04 A3033 RMK A01 T01340043  RH  054%=      5-min Rain = 0
KPG1 101928Z 23004KT 13/04 A3033 RMK A01 T01320042  RH  054%=      5-min Rain = 0
KPG1 101929Z 23004KT 13/04 A3033 RMK A01 T01320042  RH  055%=      5-min Rain = 0
KPG1 101930Z 17004KT 13/05 A3033 RMK A01 T01330045  RH  055%=      5-min Rain = 0
KPG1 101931Z 16002KT 14/05 A3033 RMK A01 T01380049  RH  055%=      5-min Rain = 0
KPG1 101932Z 18004KT 14/05 A3033 RMK A01 T01410046  RH  053%=      5-min Rain = 0
KPG1 101933Z 19004KT 14/04 A3033 RMK A01 T01400043  RH  052%=      5-min Rain = 0
KPG1 101934Z 21003KT 14/04 A3033 RMK A01 T01360041  RH  053%=      5-min Rain = 0
KPG1 101935Z 22003KT 13/04 A3033 RMK A01 T01330041  RH  054%=      5-min Rain = 0
KPG1 101936Z 20005KT 13/04 A3033 RMK A01 T01340044  RH  054%=      5-min Rain = 0
KPG1 101937Z 15006KT 13/04 A3033 RMK A01 T01340043  RH  054%=      5-min Rain = 0
KPG1 101938Z 16005KT 14/04 A3033 RMK A01 T01350044  RH  054%=      5-min Rain = 0
KPG1 101939Z 14004KT 14/04 A3033 RMK A01 T01360043  RH  053%=      5-min Rain = 0
KPG1 101940Z 14006KT 14/04 A3033 RMK A01 T01370043  RH  053%=      5-min Rain = 0
KPG1 101941Z 15005KT 14/04 A3033 RMK A01 T01360044  RH  054%=      5-min Rain = 0
KPG1 101942Z 14003KT 14/04 A3033 RMK A01 T01370043  RH  053%=      5-min Rain = 0
KPG1 101943Z 14004KT 14/04 A3033 RMK A01 T01380044  RH  053%=      5-min Rain = 0
KPG1 101944Z 12005KT 14/04 A3033 RMK A01 T01380044  RH  053%=      5-min Rain = 0
KPG1 101945Z 12004KT 14/04 A3033 RMK A01 T01380044  RH  053%=      5-min Rain = 0
KPG1 101946Z 11005KT 14/04 A3032 RMK A01 T01380044  RH  053%=      5-min Rain = 0
KPG1 101947Z 14003KT 14/05 A3032 RMK A01 T01390046  RH  054%=      5-min Rain = 0
KPG1 101948Z 14004KT 14/05 A3032 RMK A01 T01400045  RH  053%=      5-min Rain = 0
KPG1 101949Z 12003KT 14/05 A3032 RMK A01 T01400045  RH  053%=      5-min Rain = 0
KPG1 101950Z 11003KT 14/04 A3032 RMK A01 T01390044  RH  053%=      5-min Rain = 0
KPG1 101951Z 12003KT 14/04 A3032 RMK A01 T01380044  RH  053%=      5-min Rain = 0
KPG1 101952Z 14003KT 14/04 A3032 RMK A01 T01380044  RH  053%=      5-min Rain = 0
KPG1 101953Z 13002KT 14/04 A3032 RMK A01 T01390044  RH  053%=      5-min Rain = 0
KPG1 101954Z 15002KT 14/04 A3032 RMK A01 T01390044  RH  053%=      5-min Rain = 0
KPG1 101955Z 15003KT 14/05 A3032 RMK A01 T01400045  RH  053%=      5-min Rain = 0
KPG1 101956Z 18005KT 14/05 A3032 RMK A01 T01410046  RH  053%=      5-min Rain = 0
KPG1 101957Z 18003KT 14/04 A3032 RMK A01 T01400044  RH  052%=      5-min Rain = 0
KPG1 101958Z 14003KT 14/04 A3032 RMK A01 T01400044  RH  052%=      5-min Rain = 0
KPG1 101959Z 17003KT 14/05 A3032 RMK A01 T01410047  RH  053%=      5-min Rain = 0
KPG1 102000Z 17003KT 14/05 A3032 RMK A01 T01420045  RH  052%=      5-min Rain = 0
KPG1 102001Z 16004KT 14/05 A3032 RMK A01 T01420046  RH  052%=      5-min Rain = 0
KPG1 102002Z 15005KT 14/05 A3032 RMK A01 T01430047  RH  053%=      5-min Rain = 0
KPG1 102003Z 15005KT 14/05 A3032 RMK A01 T01430047  RH  052%=      5-min Rain = 0
KPG1 102004Z 14005KT 14/05 A3032 RMK A01 T01430045  RH  052%=      5-min Rain = 0
KPG1 102005Z 15003KT 14/04 A3032 RMK A01 T01410044  RH  052%=      5-min Rain = 0
KPG1 102006Z 15002KT 14/05 A3032 RMK A01 T01410045  RH  052%=      5-min Rain = 0
KPG1 102007Z 16002KT 14/05 A3031 RMK A01 T01420046  RH  052%=      5-min Rain = 0
KPG1 102008Z 19001KT 14/05 A3031 RMK A01 T01440047  RH  052%=      5-min Rain = 0
KPG1 102009Z 21000KT 15/04 A3031 RMK A01 T01450044  RH  051%=      5-min Rain = 0
KPG1 102010Z 16001KT 14/05 A3031 RMK A01 T01440045  RH  051%=      5-min Rain = 0
KPG1 102011Z 18001KT 15/05 A3031 RMK A01 T01460046  RH  051%=      5-min Rain = 0
KPG1 102012Z 19002KT 15/05 A3031 RMK A01 T01470045  RH  050%=      5-min Rain = 0
KPG1 102013Z 20000KT 15/04 A3031 RMK A01 T01470044  RH  050%=      5-min Rain = 0
KPG1 102014Z 32001KT 15/04 A3031 RMK A01 T01450042  RH  050%=      5-min Rain = 0
KPG1 102015Z 13004KT 15/05 A3031 RMK A01 T01460048  RH  052%=      5-min Rain = 0
KPG1 102016Z 12003KT 15/05 A3031 RMK A01 T01470045  RH  050%=      5-min Rain = 0
KPG1 102017Z 11002KT 15/05 A3031 RMK A01 T01460045  RH  051%=      5-min Rain = 0
KPG1 102018Z 10003KT 15/05 A3031 RMK A01 T01450046  RH  051%=      5-min Rain = 0
KPG1 102019Z 11004KT 15/05 A3031 RMK A01 T01450046  RH  051%=      5-min Rain = 0
KPG1 102020Z 13003KT 15/05 A3031 RMK A01 T01450047  RH  052%=      5-min Rain = 0
KPG1 102021Z 12003KT 15/05 A3031 RMK A01 T01450045  RH  051%=      5-min Rain = 0
KPG1 102022Z 06002KT 14/04 A3031 RMK A01 T01430042  RH  051%=      5-min Rain = 0
KPG1 102023Z 10001KT 14/04 A3031 RMK A01 T01420044  RH  052%=      5-min Rain = 0
KPG1 102024Z 18002KT 14/05 A3031 RMK A01 T01430046  RH  052%=      5-min Rain = 0
KPG1 102025Z 20003KT 15/05 A3031 RMK A01 T01460048  RH  052%=      5-min Rain = 0
KPG1 102026Z 20003KT 15/05 A3031 RMK A01 T01480048  RH  051%=      5-min Rain = 0
KPG1 102027Z 22003KT 15/05 A3031 RMK A01 T01480048  RH  051%=      5-min Rain = 0
KPG1 102028Z 23003KT 15/05 A3031 RMK A01 T01490048  RH  051%=      5-min Rain = 0
KPG1 102029Z 17004KT 15/05 A3031 RMK A01 T01480047  RH  051%=      5-min Rain = 0
KPG1 102030Z 16003KT 15/05 A3031 RMK A01 T01470048  RH  051%=      5-min Rain = 0
KPG1 102031Z 18003KT 15/05 A3031 RMK A01 T01480048  RH  051%=      5-min Rain = 0
KPG1 102032Z 17004KT 15/05 A3031 RMK A01 T01490048  RH  051%=      5-min Rain = 0
KPG1 102033Z 15003KT 15/05 A3031 RMK A01 T01500048  RH  051%=      5-min Rain = 0
KPG1 102034Z 14002KT 15/05 A3031 RMK A01 T01490045  RH  050%=      5-min Rain = 0
KPG1 102035Z 16001KT 15/05 A3031 RMK A01 T01470045  RH  050%=      5-min Rain = 0
KPG1 102036Z 22003KT 15/05 A303 RMK A01 T01480046  RH  050%=      5-min Rain = 0
KPG1 102037Z 18005KT 15/05 A303 RMK A01 T01500050  RH  051%=      5-min Rain = 0
KPG1 102038Z 18004KT 15/05 A303 RMK A01 T01520048  RH  050%=      5-min Rain = 0
KPG1 102039Z 19002KT 15/05 A303 RMK A01 T01500047  RH  050%=      5-min Rain = 0
KPG1 102040Z 21002KT 15/05 A303 RMK A01 T01500049  RH  051%=      5-min Rain = 0
KPG1 102041Z 19003KT 15/05 A303 RMK A01 T01510047  RH  050%=      5-min Rain = 0
KPG1 102042Z 17003KT 15/05 A303 RMK A01 T01510049  RH  050%=      5-min Rain = 0
KPG1 102043Z 17002KT 15/05 A303 RMK A01 T01510047  RH  050%=      5-min Rain = 0
KPG1 102044Z 18001KT 15/05 A303 RMK A01 T01510048  RH  050%=      5-min Rain = 0
KPG1 102045Z 25001KT 15/05 A303 RMK A01 T01520047  RH  050%=      5-min Rain = 0
KPG1 102046Z 21001KT 15/05 A303 RMK A01 T01520045  RH  049%=      5-min Rain = 0
KPG1 102047Z 24001KT 15/05 A303 RMK A01 T01530045  RH  048%=      5-min Rain = 0
KPG1 102048Z 24001KT 15/04 A303 RMK A01 T01520044  RH  048%=      5-min Rain = 0
KPG1 102049Z 27002KT 15/05 A303 RMK A01 T01520045  RH  049%=      5-min Rain = 0
KPG1 102050Z 27003KT 15/05 A303 RMK A01 T01520046  RH  049%=      5-min Rain = 0
KPG1 102051Z 25002KT 15/05 A303 RMK A01 T01510047  RH  050%=      5-min Rain = 0
KPG1 102052Z 28001KT 15/05 A303 RMK A01 T01500045  RH  049%=      5-min Rain = 0
KPG1 102053Z 30002KT 15/05 A303 RMK A01 T01490046  RH  050%=      5-min Rain = 0
KPG1 102054Z 31003KT 15/05 A303 RMK A01 T01500047  RH  050%=      5-min Rain = 0
KPG1 102055Z 30002KT 15/05 A303 RMK A01 T01510048  RH  050%=      5-min Rain = 0
KPG1 102056Z 20002KT 15/05 A303 RMK A01 T01520048  RH  050%=      5-min Rain = 0
KPG1 102057Z 19004KT 15/05 A303 RMK A01 T01540047  RH  049%=      5-min Rain = 0
KPG1 102058Z 17002KT 15/05 A303 RMK A01 T01540046  RH  049%=      5-min Rain = 0
KPG1 102059Z 19001KT 15/05 A303 RMK A01 T01530045  RH  048%=      5-min Rain = 0
KPG1 102100Z 21001KT 15/05 A303 RMK A01 T01540048  RH  049%=      5-min Rain = 0
KPG1 102101Z 21000KT 16/05 A303 RMK A01 T01560047  RH  048%=      5-min Rain = 0
KPG1 102102Z 15002KT 16/05 A303 RMK A01 T01570048  RH  048%=      5-min Rain = 0
KPG1 102103Z 15004KT 16/05 A303 RMK A01 T01580050  RH  048%=      5-min Rain = 0
KPG1 102104Z 15004KT 16/05 A303 RMK A01 T01590048  RH  047%=      5-min Rain = 0
KPG1 102105Z 17003KT 16/05 A303 RMK A01 T01560045  RH  047%=      5-min Rain = 0
KPG1 102106Z 18003KT 15/05 A303 RMK A01 T01540047  RH  049%=      5-min Rain = 0
KPG1 102107Z 18003KT 16/05 A303 RMK A01 T01550047  RH  049%=      5-min Rain = 0
KPG1 102108Z 19003KT 15/05 A303 RMK A01 T01540046  RH  048%=      5-min Rain = 0
KPG1 102109Z 20002KT 16/05 A303 RMK A01 T01550046  RH  048%=      5-min Rain = 0
KPG1 102110Z 17002KT 16/04 A303 RMK A01 T01560044  RH  047%=      5-min Rain = 0
KPG1 102111Z 16002KT 16/05 A303 RMK A01 T01570047  RH  048%=      5-min Rain = 0
KPG1 102112Z 16003KT 16/05 A303 RMK A01 T01590046  RH  047%=      5-min Rain = 0
KPG1 102113Z 14003KT 16/05 A303 RMK A01 T01590046  RH  047%=      5-min Rain = 0
KPG1 102114Z 14001KT 16/05 A303 RMK A01 T01590045  RH  047%=      5-min Rain = 0
KPG1 102115Z 17002KT 16/04 A303 RMK A01 T01580044  RH  047%=      5-min Rain = 0
KPG1 102116Z 15002KT 16/05 A303 RMK A01 T01580047  RH  047%=      5-min Rain = 0
KPG1 102117Z 14002KT 16/05 A3029 RMK A01 T01580048  RH  048%=      5-min Rain = 0
KPG1 102118Z 13002KT 16/05 A3029 RMK A01 T01580047  RH  048%=      5-min Rain = 0
KPG1 102119Z 12003KT 16/05 A3029 RMK A01 T01570047  RH  048%=      5-min Rain = 0
KPG1 102120Z 12002KT 16/05 A3029 RMK A01 T01560045  RH  048%=      5-min Rain = 0
KPG1 102121Z 11002KT 15/04 A3029 RMK A01 T01540041  RH  047%=      5-min Rain = 0
KPG1 102122Z 05001KT 15/04 A3029 RMK A01 T01530042  RH  047%=      5-min Rain = 0
KPG1 102123Z 03002KT 15/04 A3029 RMK A01 T01530044  RH  048%=      5-min Rain = 0
KPG1 102124Z 02002KT 15/04 A3029 RMK A01 T01540043  RH  047%=      5-min Rain = 0
KPG1 102125Z 02001KT 15/04 A3029 RMK A01 T01540042  RH  047%=      5-min Rain = 0
KPG1 102126Z 19001KT 15/05 A3029 RMK A01 T01530046  RH  049%=      5-min Rain = 0
KPG1 102127Z 19002KT 15/05 A3029 RMK A01 T01540047  RH  049%=      5-min Rain = 0
KPG1 102128Z 21003KT 16/05 A3029 RMK A01 T01550047  RH  048%=      5-min Rain = 0
KPG1 102129Z 19004KT 16/05 A3029 RMK A01 T01560048  RH  048%=      5-min Rain = 0
KPG1 102130Z 19004KT 16/05 A3029 RMK A01 T01570047  RH  048%=      5-min Rain = 0
KPG1 102131Z 19003KT 16/05 A3029 RMK A01 T01580047  RH  048%=      5-min Rain = 0
KPG1 102132Z 18002KT 16/04 A3029 RMK A01 T01580041  RH  046%=      5-min Rain = 0
KPG1 102133Z 19001KT 16/04 A3029 RMK A01 T01570041  RH  046%=      5-min Rain = 0
KPG1 102134Z 15002KT 16/04 A3029 RMK A01 T01570040  RH  046%=      5-min Rain = 0
KPG1 102135Z 12002KT 16/04 A3029 RMK A01 T01580044  RH  046%=      5-min Rain = 0
KPG1 102136Z 14002KT 16/04 A3029 RMK A01 T01590043  RH  046%=      5-min Rain = 0
KPG1 102137Z 15002KT 16/05 A3029 RMK A01 T01590046  RH  047%=      5-min Rain = 0
KPG1 102138Z 05001KT 16/05 A3029 RMK A01 T01610047  RH  047%=      5-min Rain = 0
KPG1 102139Z 35001KT 16/05 A3029 RMK A01 T01610047  RH  047%=      5-min Rain = 0
KPG1 102140Z 25001KT 16/05 A3029 RMK A01 T01600050  RH  048%=      5-min Rain = 0
KPG1 102141Z 09002KT 16/05 A3029 RMK A01 T01610048  RH  047%=      5-min Rain = 0
KPG1 102142Z 08006KT 16/05 A3029 RMK A01 T01600049  RH  048%=      5-min Rain = 0
KPG1 102143Z 10005KT 16/05 A3029 RMK A01 T01570048  RH  048%=      5-min Rain = 0
KPG1 102144Z 11003KT 16/05 A3029 RMK A01 T01550047  RH  049%=      5-min Rain = 0
KPG1 102145Z 16003KT 16/04 A3029 RMK A01 T01550044  RH  048%=      5-min Rain = 0
KPG1 102146Z 15003KT 16/04 A3029 RMK A01 T01550035  RH  045%=      5-min Rain = 0
KPG1 102147Z 12003KT 16/04 A3029 RMK A01 T01570040  RH  046%=      5-min Rain = 0
KPG1 102148Z 10004KT 16/04 A3029 RMK A01 T01590044  RH  046%=      5-min Rain = 0
KPG1 102149Z 08005KT 16/05 A3029 RMK A01 T01590048  RH  048%=      5-min Rain = 0
KPG1 102150Z 09005KT 16/05 A3029 RMK A01 T01580046  RH  047%=      5-min Rain = 0
KPG1 102151Z 13005KT 16/05 A3029 RMK A01 T01570045  RH  047%=      5-min Rain = 0
KPG1 102152Z 13003KT 16/04 A3029 RMK A01 T01570044  RH  047%=      5-min Rain = 0
KPG1 102153Z 08003KT 16/04 A3029 RMK A01 T01570044  RH  047%=      5-min Rain = 0
KPG1 102154Z 09002KT 16/04 A3029 RMK A01 T01580044  RH  047%=      5-min Rain = 0
KPG1 102155Z 11004KT 16/04 A3029 RMK A01 T01580043  RH  046%=      5-min Rain = 0
KPG1 102156Z 15002KT 16/04 A3029 RMK A01 T01570039  RH  045%=      5-min Rain = 0
KPG1 102157Z 06004KT 16/04 A3029 RMK A01 T01570042  RH  046%=      5-min Rain = 0
KPG1 102158Z 06005KT 16/05 A3029 RMK A01 T01550047  RH  048%=      5-min Rain = 0
KPG1 102159Z 05006KT 15/05 A3029 RMK A01 T01540047  RH  049%=      5-min Rain = 0
KPG1 102200Z 04005KT 15/05 A3029 RMK A01 T01530047  RH  049%=      5-min Rain = 0
KPG1 102201Z 02003KT 15/05 A3029 RMK A01 T01520048  RH  050%=      5-min Rain = 0
KPG1 102202Z 28001KT 15/05 A3029 RMK A01 T01520048  RH  050%=      5-min Rain = 0
KPG1 102203Z 18003KT 15/05 A3029 RMK A01 T01530047  RH  049%=      5-min Rain = 0
KPG1 102204Z 17003KT 16/04 A3029 RMK A01 T01570043  RH  047%=      5-min Rain = 0
KPG1 102205Z 21002KT 16/04 A3029 RMK A01 T01590037  RH  044%=      5-min Rain = 0
KPG1 102206Z 17001KT 16/04 A3029 RMK A01 T01600039  RH  045%=      5-min Rain = 0
KPG1 102207Z 08001KT 16/04 A3029 RMK A01 T01610041  RH  045%=      5-min Rain = 0
KPG1 102208Z 03002KT 16/04 A3029 RMK A01 T01610042  RH  045%=      5-min Rain = 0
KPG1 102209Z 17003KT 16/04 A3028 RMK A01 T01590044  RH  046%=      5-min Rain = 0
KPG1 102210Z 09005KT 16/04 A3029 RMK A01 T01570042  RH  046%=      5-min Rain = 0
KPG1 102211Z 07005KT 16/05 A3028 RMK A01 T01550046  RH  048%=      5-min Rain = 0
KPG1 102212Z 06006KT 15/05 A3028 RMK A01 T01520045  RH  049%=      5-min Rain = 0
KPG1 102213Z 06007KT 15/05 A3029 RMK A01 T01500046  RH  050%=      5-min Rain = 0
KPG1 102214Z 06007KT 15/05 A3029 RMK A01 T01490047  RH  050%=      5-min Rain = 0
KPG1 102215Z 06006KT 15/05 A3029 RMK A01 T01480046  RH  051%=      5-min Rain = 0
KPG1 102216Z 06006KT 15/05 A3029 RMK A01 T01470046  RH  051%=      5-min Rain = 0
KPG1 102217Z 07006KT 15/05 A3029 RMK A01 T01460048  RH  052%=      5-min Rain = 0
KPG1 102218Z 07006KT 15/05 A3029 RMK A01 T01460048  RH  052%=      5-min Rain = 0
KPG1 102219Z 08006KT 15/05 A3029 RMK A01 T01460047  RH  052%=      5-min Rain = 0
KPG1 102220Z 08005KT 15/05 A3029 RMK A01 T01450047  RH  052%=      5-min Rain = 0
KPG1 102221Z 08006KT 15/05 A3029 RMK A01 T01450047  RH  052%=      5-min Rain = 0
KPG1 102222Z 08006KT 15/05 A3029 RMK A01 T01450048  RH  052%=      5-min Rain = 0
KPG1 102223Z 08006KT 14/05 A3029 RMK A01 T01440048  RH  052%=      5-min Rain = 0
KPG1 102224Z 07005KT 14/05 A3029 RMK A01 T01440048  RH  052%=      5-min Rain = 0
KPG1 102225Z 07006KT 14/05 A3029 RMK A01 T01440049  RH  053%=      5-min Rain = 0
KPG1 102226Z 07007KT 15/05 A3029 RMK A01 T01450048  RH  052%=      5-min Rain = 0
KPG1 102227Z 07006KT 15/05 A3029 RMK A01 T01450047  RH  052%=      5-min Rain = 0
KPG1 102228Z 08005KT 15/05 A3029 RMK A01 T01450048  RH  052%=      5-min Rain = 0
KPG1 102229Z 07006KT 15/05 A3028 RMK A01 T01470050  RH  052%=      5-min Rain = 0
KPG1 102230Z 07007KT 15/05 A3028 RMK A01 T01480049  RH  052%=      5-min Rain = 0
KPG1 102231Z 07006KT 15/05 A3028 RMK A01 T01480047  RH  051%=      5-min Rain = 0
KPG1 102232Z 07007KT 15/05 A3028 RMK A01 T01480048  RH  051%=      5-min Rain = 0
KPG1 102233Z 06007KT 15/05 A3028 RMK A01 T01480046  RH  050%=      5-min Rain = 0
KPG1 102234Z 07006KT 15/05 A3028 RMK A01 T01480045  RH  050%=      5-min Rain = 0
KPG1 102235Z 07005KT 15/05 A3028 RMK A01 T01480046  RH  050%=      5-min Rain = 0
KPG1 102236Z 06006KT 15/05 A3028 RMK A01 T01480046  RH  051%=      5-min Rain = 0
KPG1 102237Z 06007KT 15/05 A3028 RMK A01 T01480046  RH  051%=      5-min Rain = 0
KPG1 102238Z 06006KT 15/05 A3028 RMK A01 T01470045  RH  050%=      5-min Rain = 0
KPG1 102239Z 07007KT 15/05 A3028 RMK A01 T01470045  RH  050%=      5-min Rain = 0
KPG1 102240Z 07007KT 15/05 A3028 RMK A01 T01460045  RH  051%=      5-min Rain = 0
KPG1 102241Z 07007KT 15/05 A3028 RMK A01 T01470046  RH  051%=      5-min Rain = 0
KPG1 102242Z 06007KT 15/05 A3028 RMK A01 T01460045  RH  051%=      5-min Rain = 0
KPG1 102243Z 07007KT 15/05 A3028 RMK A01 T01460046  RH  051%=      5-min Rain = 0
KPG1 102244Z 07007KT 15/05 A3028 RMK A01 T01460045  RH  051%=      5-min Rain = 0
KPG1 102245Z 07007KT 15/05 A3028 RMK A01 T01460045  RH  051%=      5-min Rain = 0
KPG1 102246Z 07007KT 15/05 A3028 RMK A01 T01450046  RH  051%=      5-min Rain = 0
KPG1 102247Z 06007KT 15/05 A3028 RMK A01 T01450046  RH  051%=      5-min Rain = 0
KPG1 102248Z 06007KT 15/05 A3028 RMK A01 T01450045  RH  051%=      5-min Rain = 0
KPG1 102249Z 06007KT 15/05 A3028 RMK A01 T01450046  RH  051%=      5-min Rain = 0
KPG1 102250Z 06007KT 15/05 A3028 RMK A01 T01450046  RH  051%=      5-min Rain = 0
KPG1 102251Z 06007KT 15/05 A3028 RMK A01 T01450047  RH  052%=      5-min Rain = 0
KPG1 102252Z 06006KT 15/05 A3028 RMK A01 T01450048  RH  052%=      5-min Rain = 0
KPG1 102253Z 07007KT 15/05 A3028 RMK A01 T01450046  RH  051%=      5-min Rain = 0
KPG1 102254Z 06007KT 14/05 A3028 RMK A01 T01440046  RH  052%=      5-min Rain = 0
KPG1 102255Z 06008KT 14/05 A3028 RMK A01 T01440046  RH  052%=      5-min Rain = 0
KPG1 102256Z 07006KT 14/05 A3028 RMK A01 T01430046  RH  052%=      5-min Rain = 0
KPG1 102257Z 07007KT 14/05 A3028 RMK A01 T01430047  RH  052%=      5-min Rain = 0
KPG1 102258Z 06007KT 14/05 A3028 RMK A01 T01430048  RH  053%=      5-min Rain = 0
KPG1 102259Z 07006KT 14/05 A3028 RMK A01 T01430046  RH  052%=      5-min Rain = 0
KPG1 102300Z 07007KT 14/05 A3029 RMK A01 T01430047  RH  052%=      5-min Rain = 0
KPG1 102301Z 07005KT 14/05 A3029 RMK A01 T01430048  RH  053%=      5-min Rain = 0
KPG1 102302Z 07005KT 14/05 A3029 RMK A01 T01420048  RH  053%=      5-min Rain = 0
KPG1 102303Z 08007KT 14/05 A3028 RMK A01 T01420048  RH  053%=      5-min Rain = 0
KPG1 102304Z 07006KT 14/05 A3028 RMK A01 T01420048  RH  053%=      5-min Rain = 0
KPG1 102305Z 07006KT 14/05 A3028 RMK A01 T01420048  RH  053%=      5-min Rain = 0
KPG1 102306Z 08007KT 14/05 A3028 RMK A01 T01410048  RH  054%=      5-min Rain = 0
KPG1 102307Z 08006KT 14/05 A3028 RMK A01 T01410048  RH  053%=      5-min Rain = 0
KPG1 102308Z 08006KT 14/05 A3028 RMK A01 T01420049  RH  054%=      5-min Rain = 0
KPG1 102309Z 08006KT 14/05 A3029 RMK A01 T01420047  RH  053%=      5-min Rain = 0
KPG1 102310Z 08006KT 14/05 A3029 RMK A01 T01420048  RH  053%=      5-min Rain = 0
KPG1 102311Z 08006KT 14/05 A3029 RMK A01 T01420047  RH  053%=      5-min Rain = 0
KPG1 102312Z 08005KT 14/05 A3029 RMK A01 T01420046  RH  053%=      5-min Rain = 0
KPG1 102313Z 09005KT 14/05 A3029 RMK A01 T01410047  RH  053%=      5-min Rain = 0
KPG1 102314Z 08006KT 14/05 A3029 RMK A01 T01410048  RH  053%=      5-min Rain = 0
KPG1 102315Z 08006KT 14/05 A3029 RMK A01 T01420048  RH  053%=      5-min Rain = 0
KPG1 102316Z 07004KT 14/05 A3029 RMK A01 T01410045  RH  052%=      5-min Rain = 0
KPG1 102317Z 08003KT 14/05 A3029 RMK A01 T01410046  RH  053%=      5-min Rain = 0
KPG1 102318Z 07005KT 14/05 A3029 RMK A01 T01420047  RH  053%=      5-min Rain = 0
KPG1 102319Z 07006KT 14/05 A3029 RMK A01 T01420048  RH  053%=      5-min Rain = 0
KPG1 102320Z 07007KT 14/05 A3029 RMK A01 T01420047  RH  053%=      5-min Rain = 0
KPG1 102321Z 07007KT 14/05 A3029 RMK A01 T01410047  RH  053%=      5-min Rain = 0
KPG1 102322Z 07006KT 14/05 A3029 RMK A01 T01400047  RH  053%=      5-min Rain = 0
KPG1 102323Z 08005KT 14/05 A3029 RMK A01 T01400049  RH  054%=      5-min Rain = 0
KPG1 102324Z 07007KT 14/05 A3029 RMK A01 T01390049  RH  054%=      5-min Rain = 0
KPG1 102325Z 07007KT 14/05 A3029 RMK A01 T01390049  RH  054%=      5-min Rain = 0
KPG1 102326Z 07007KT 14/05 A3029 RMK A01 T01390048  RH  054%=      5-min Rain = 0
KPG1 102327Z 07006KT 14/05 A3029 RMK A01 T01380048  RH  054%=      5-min Rain = 0
KPG1 102328Z 07006KT 14/05 A3029 RMK A01 T01380049  RH  055%=      5-min Rain = 0
KPG1 102329Z 07007KT 14/05 A3029 RMK A01 T01380050  RH  055%=      5-min Rain = 0
KPG1 102330Z 07006KT 14/05 A3029 RMK A01 T01370050  RH  056%=      5-min Rain = 0
KPG1 102331Z 07006KT 14/05 A3029 RMK A01 T01360050  RH  056%=      5-min Rain = 0
KPG1 102332Z 07006KT 14/05 A3029 RMK A01 T01370051  RH  056%=      5-min Rain = 0
KPG1 102333Z 07007KT 14/05 A3029 RMK A01 T01360051  RH  056%=      5-min Rain = 0
KPG1 102334Z 07006KT 14/05 A3029 RMK A01 T01350051  RH  057%=      5-min Rain = 0
KPG1 102335Z 08006KT 14/05 A3029 RMK A01 T01350050  RH  056%=      5-min Rain = 0
KPG1 102336Z 07004KT 14/05 A3029 RMK A01 T01350050  RH  056%=      5-min Rain = 0
KPG1 102337Z 07005KT 13/05 A3029 RMK A01 T01340050  RH  057%=      5-min Rain = 0
KPG1 102338Z 08007KT 13/05 A3029 RMK A01 T01340051  RH  057%=      5-min Rain = 0
KPG1 102339Z 07007KT 13/05 A3029 RMK A01 T01330050  RH  057%=      5-min Rain = 0
KPG1 102340Z 07005KT 13/05 A3029 RMK A01 T01330049  RH  057%=      5-min Rain = 0
KPG1 102341Z 08005KT 13/05 A3029 RMK A01 T01330051  RH  057%=      5-min Rain = 0
KPG1 102342Z 07006KT 13/05 A303 RMK A01 T01320051  RH  058%=      5-min Rain = 0
KPG1 102343Z 07006KT 13/05 A303 RMK A01 T01320051  RH  058%=      5-min Rain = 0
KPG1 102344Z 06005KT 13/05 A303 RMK A01 T01310049  RH  057%=      5-min Rain = 0
KPG1 102345Z 06004KT 13/05 A303 RMK A01 T01320048  RH  057%=      5-min Rain = 0
KPG1 102346Z 05003KT 13/05 A3031 RMK A01 T01320048  RH  057%=      5-min Rain = 0
KPG1 102347Z 05003KT 13/05 A3031 RMK A01 T01330050  RH  057%=      5-min Rain = 0
KPG1 102348Z 05004KT 13/05 A303 RMK A01 T01320050  RH  058%=      5-min Rain = 0
KPG1 102349Z 05004KT 13/05 A303 RMK A01 T01300051  RH  058%=      5-min Rain = 0
KPG1 102350Z 05004KT 13/05 A303 RMK A01 T01290051  RH  059%=      5-min Rain = 0
KPG1 102351Z 05004KT 13/05 A303 RMK A01 T01290051  RH  059%=      5-min Rain = 0
KPG1 102352Z 05005KT 13/05 A303 RMK A01 T01280052  RH  060%=      5-min Rain = 0
KPG1 102353Z 06004KT 13/05 A303 RMK A01 T01270052  RH  061%=      5-min Rain = 0
KPG1 102354Z 05004KT 13/05 A303 RMK A01 T01260052  RH  061%=      5-min Rain = 0
KPG1 102355Z 05004KT 13/05 A303 RMK A01 T01260052  RH  061%=      5-min Rain = 0
KPG1 102356Z 05005KT 13/05 A303 RMK A01 T01250053  RH  062%=      5-min Rain = 0
KPG1 102357Z 05005KT 12/05 A303 RMK A01 T01240053  RH  062%=      5-min Rain = 0
KPG1 102358Z 07006KT 12/05 A303 RMK A01 T01240053  RH  062%=      5-min Rain = 0
KPG1 102359Z 07006KT 12/05 A303 RMK A01 T01240053  RH  062%=      5-min Rain = 0
KPG1 110000Z 07006KT 12/05 A303 RMK A01 T01240053  RH  062%=      5-min Rain = 0
KPG1 110001Z 07006KT 12/05 A3029 RMK A01 T01230053  RH  062%=      5-min Rain = 0
KPG1 110002Z 07006KT 12/05 A3029 RMK A01 T01230052  RH  062%=      5-min Rain = 0
KPG1 110003Z 07007KT 12/05 A3029 RMK A01 T01230052  RH  062%=      5-min Rain = 0
KPG1 110004Z 07007KT 12/05 A3029 RMK A01 T01230052  RH  062%=      5-min Rain = 0
KPG1 110005Z 07007KT 12/05 A3029 RMK A01 T01230051  RH  062%=      5-min Rain = 0
KPG1 110006Z 07007KT 12/05 A3029 RMK A01 T01230052  RH  062%=      5-min Rain = 0
KPG1 110007Z 06007KT 12/05 A3029 RMK A01 T01230052  RH  062%=      5-min Rain = 0
KPG1 110008Z 06007KT 12/05 A3029 RMK A01 T01230052  RH  062%=      5-min Rain = 0
KPG1 110009Z 07007KT 12/05 A3029 RMK A01 T01230052  RH  062%=      5-min Rain = 0
KPG1 110010Z 06006KT 12/05 A303 RMK A01 T01230052  RH  062%=      5-min Rain = 0
KPG1 110011Z 06006KT 12/05 A303 RMK A01 T01230052  RH  062%=      5-min Rain = 0
KPG1 110012Z 06006KT 12/05 A303 RMK A01 T01220053  RH  063%=      5-min Rain = 0
KPG1 110013Z 06006KT 12/05 A303 RMK A01 T01220053  RH  063%=      5-min Rain = 0
KPG1 110014Z 05005KT 12/05 A303 RMK A01 T01220053  RH  062%=      5-min Rain = 0
KPG1 110015Z 05005KT 12/05 A303 RMK A01 T01220052  RH  062%=      5-min Rain = 0
KPG1 110016Z 05005KT 12/05 A303 RMK A01 T01220052  RH  062%=      5-min Rain = 0
KPG1 110017Z 04005KT 12/05 A303 RMK A01 T01220052  RH  062%=      5-min Rain = 0
KPG1 110018Z 04005KT 12/05 A303 RMK A01 T01220052  RH  062%=      5-min Rain = 0
KPG1 110019Z 04006KT 12/05 A303 RMK A01 T01200052  RH  063%=      5-min Rain = 0
KPG1 110020Z 04005KT 12/05 A3029 RMK A01 T01200052  RH  063%=      5-min Rain = 0
KPG1 110021Z 04006KT 12/05 A3029 RMK A01 T01200052  RH  063%=      5-min Rain = 0
KPG1 110022Z 04006KT 12/05 A3029 RMK A01 T01190052  RH  064%=      5-min Rain = 0
KPG1 110023Z 04007KT 12/05 A3029 RMK A01 T01180052  RH  064%=      5-min Rain = 0
KPG1 110024Z 05006KT 12/05 A3029 RMK A01 T01180052  RH  064%=      5-min Rain = 0
KPG1 110025Z 05006KT 12/05 A3029 RMK A01 T01180052  RH  064%=      5-min Rain = 0
KPG1 110026Z 05006KT 12/05 A3029 RMK A01 T01190052  RH  064%=      5-min Rain = 0
KPG1 110027Z 05006KT 12/05 A3029 RMK A01 T01190051  RH  063%=      5-min Rain = 0
KPG1 110028Z 05006KT 12/05 A3029 RMK A01 T01210051  RH  063%=      5-min Rain = 0
KPG1 110029Z 04006KT 12/05 A3029 RMK A01 T01210051  RH  062%=      5-min Rain = 0
KPG1 110030Z 04006KT 12/05 A3029 RMK A01 T01220051  RH  062%=      5-min Rain = 0
KPG1 110031Z 04006KT 12/05 A303 RMK A01 T01220051  RH  062%=      5-min Rain = 0
KPG1 110032Z 04006KT 12/05 A303 RMK A01 T01220051  RH  062%=      5-min Rain = 0
KPG1 110033Z 04006KT 12/05 A303 RMK A01 T01220051  RH  062%=      5-min Rain = 0
KPG1 110034Z 04006KT 12/05 A303 RMK A01 T01220052  RH  062%=      5-min Rain = 0
KPG1 110035Z 04006KT 12/05 A303 RMK A01 T01200052  RH  063%=      5-min Rain = 0
KPG1 110036Z 04006KT 12/05 A303 RMK A01 T01190052  RH  064%=      5-min Rain = 0
KPG1 110037Z 05006KT 12/05 A3029 RMK A01 T01190053  RH  064%=      5-min Rain = 0
KPG1 110038Z 05007KT 12/05 A3029 RMK A01 T01190053  RH  064%=      5-min Rain = 0
KPG1 110039Z 05007KT 12/05 A3029 RMK A01 T01200053  RH  064%=      5-min Rain = 0
KPG1 110040Z 05007KT 12/05 A3029 RMK A01 T01210053  RH  063%=      5-min Rain = 0
KPG1 110041Z 05007KT 12/05 A3029 RMK A01 T01220053  RH  063%=      5-min Rain = 0
KPG1 110042Z 05007KT 12/05 A3029 RMK A01 T01220054  RH  063%=      5-min Rain = 0
KPG1 110043Z 05007KT 12/05 A3029 RMK A01 T01210054  RH  063%=      5-min Rain = 0
KPG1 110044Z 05007KT 12/05 A3029 RMK A01 T01210054  RH  063%=      5-min Rain = 0
KPG1 110045Z 05006KT 12/05 A3029 RMK A01 T01210054  RH  063%=      5-min Rain = 0
KPG1 110046Z 05007KT 12/05 A3029 RMK A01 T01210053  RH  063%=      5-min Rain = 0
KPG1 110047Z 05006KT 12/05 A303 RMK A01 T01220053  RH  063%=      5-min Rain = 0
KPG1 110048Z 04007KT 12/05 A303 RMK A01 T01210053  RH  063%=      5-min Rain = 0
KPG1 110049Z 05007KT 12/05 A303 RMK A01 T01210053  RH  063%=      5-min Rain = 0
KPG1 110050Z 04007KT 12/05 A303 RMK A01 T01220053  RH  063%=      5-min Rain = 0
KPG1 110051Z 05007KT 12/05 A303 RMK A01 T01220053  RH  063%=      5-min Rain = 0
KPG1 110052Z 05007KT 12/05 A303 RMK A01 T01220053  RH  063%=      5-min Rain = 0
KPG1 110053Z 05007KT 12/05 A303 RMK A01 T01220053  RH  063%=      5-min Rain = 0
KPG1 110054Z 05007KT 12/05 A303 RMK A01 T01220053  RH  063%=      5-min Rain = 0
KPG1 110055Z 04007KT 12/05 A303 RMK A01 T01220052  RH  062%=      5-min Rain = 0
KPG1 110056Z 05007KT 12/05 A303 RMK A01 T01220052  RH  062%=      5-min Rain = 0
KPG1 110057Z 04007KT 12/05 A303 RMK A01 T01220052  RH  062%=      5-min Rain = 0
KPG1 110058Z 05007KT 12/05 A303 RMK A01 T01220052  RH  062%=      5-min Rain = 0
KPG1 110059Z 05007KT 12/05 A303 RMK A01 T01220052  RH  062%=      5-min Rain = 0
KPG1 110100Z 05007KT 12/05 A303 RMK A01 T01220052  RH  062%=      5-min Rain = 0
KPG1 110101Z 05007KT 12/05 A303 RMK A01 T01220052  RH  063%=      5-min Rain = 0
KPG1 110102Z 05006KT 12/05 A303 RMK A01 T01220052  RH  063%=      5-min Rain = 0
KPG1 110103Z 05006KT 12/05 A303 RMK A01 T01210052  RH  063%=      5-min Rain = 0
KPG1 110104Z 05007KT 12/05 A303 RMK A01 T01210053  RH  063%=      5-min Rain = 0
KPG1 110105Z 05008KT 12/05 A303 RMK A01 T01200052  RH  063%=      5-min Rain = 0
KPG1 110106Z 05007KT 12/05 A303 RMK A01 T01200052  RH  063%=      5-min Rain = 0
KPG1 110107Z 05007KT 12/05 A303 RMK A01 T01200052  RH  063%=      5-min Rain = 0
KPG1 110108Z 05007KT 12/05 A303 RMK A01 T01210052  RH  063%=      5-min Rain = 0
KPG1 110109Z 05007KT 12/05 A303 RMK A01 T01210052  RH  063%=      5-min Rain = 0
KPG1 110110Z 05006KT 12/05 A303 RMK A01 T01210052  RH  063%=      5-min Rain = 0
KPG1 110111Z 05007KT 12/05 A303 RMK A01 T01210052  RH  063%=      5-min Rain = 0
KPG1 110112Z 05007KT 12/05 A303 RMK A01 T01210052  RH  063%=      5-min Rain = 0
KPG1 110113Z 05007KT 12/05 A303 RMK A01 T01200052  RH  063%=      5-min Rain = 0
KPG1 110114Z 05007KT 12/05 A303 RMK A01 T01200052  RH  063%=      5-min Rain = 0
KPG1 110115Z 05007KT 12/05 A303 RMK A01 T01200052  RH  063%=      5-min Rain = 0
KPG1 110116Z 04008KT 12/05 A303 RMK A01 T01200052  RH  063%=      5-min Rain = 0
KPG1 110117Z 04008KT 12/05 A303 RMK A01 T01200052  RH  063%=      5-min Rain = 0
KPG1 110118Z 05007KT 12/05 A303 RMK A01 T01210052  RH  063%=      5-min Rain = 0
KPG1 110119Z 04007KT 12/05 A303 RMK A01 T01210052  RH  063%=      5-min Rain = 0
KPG1 110120Z 04008KT 12/05 A303 RMK A01 T01210052  RH  063%=      5-min Rain = 0
KPG1 110121Z 04008KT 12/05 A303 RMK A01 T01210052  RH  063%=      5-min Rain = 0
KPG1 110122Z 05008KT 12/05 A303 RMK A01 T01200052  RH  063%=      5-min Rain = 0
KPG1 110123Z 05008KT 12/05 A303 RMK A01 T01200051  RH  063%=      5-min Rain = 0
KPG1 110124Z 04007KT 12/05 A303 RMK A01 T01210052  RH  063%=      5-min Rain = 0
KPG1 110125Z 04007KT 12/05 A303 RMK A01 T01210051  RH  063%=      5-min Rain = 0
KPG1 110126Z 04007KT 12/05 A3031 RMK A01 T01200052  RH  063%=      5-min Rain = 0
KPG1 110127Z 04007KT 12/05 A3031 RMK A01 T01180052  RH  064%=      5-min Rain = 0
KPG1 110128Z 03007KT 12/05 A3031 RMK A01 T01170053  RH  065%=      5-min Rain = 0
KPG1 110129Z 04008KT 12/05 A3031 RMK A01 T01160052  RH  065%=      5-min Rain = 0
KPG1 110130Z 04008KT 12/05 A3031 RMK A01 T01150053  RH  065%=      5-min Rain = 0
KPG1 110131Z 03008KT 12/05 A3031 RMK A01 T01150053  RH  066%=      5-min Rain = 0
KPG1 110132Z 04007KT 12/05 A3031 RMK A01 T01150053  RH  066%=      5-min Rain = 0
KPG1 110133Z 04007KT 12/05 A3031 RMK A01 T01150052  RH  065%=      5-min Rain = 0
KPG1 110134Z 04008KT 12/05 A3031 RMK A01 T01150052  RH  065%=      5-min Rain = 0
KPG1 110135Z 03008KT 12/05 A3031 RMK A01 T01160052  RH  065%=      5-min Rain = 0
KPG1 110136Z 03008KT 12/05 A3031 RMK A01 T01160053  RH  065%=      5-min Rain = 0
KPG1 110137Z 03008KT 11/05 A3031 RMK A01 T01140053  RH  066%=      5-min Rain = 0
KPG1 110138Z 03008KT 11/05 A3031 RMK A01 T01140053  RH  066%=      5-min Rain = 0
KPG1 110139Z 04008KT 11/05 A3031 RMK A01 T01140053  RH  066%=      5-min Rain = 0
KPG1 110140Z 04008KT 11/05 A3031 RMK A01 T01140053  RH  066%=      5-min Rain = 0
KPG1 110141Z 03009KT 11/05 A3031 RMK A01 T01140053  RH  066%=      5-min Rain = 0
KPG1 110142Z 03009KT 11/05 A3031 RMK A01 T01130053  RH  066%=      5-min Rain = 0
KPG1 110143Z 03011KT 11/05 A3031 RMK A01 T01120053  RH  067%=      5-min Rain = 0
KPG1 110144Z 03010KT 11/05 A3031 RMK A01 T01100054  RH  068%=      5-min Rain = 0
KPG1 110145Z 03011KT 11/05 A3031 RMK A01 T01070054  RH  070%=      5-min Rain = 0
KPG1 110146Z 02012KT 11/05 A3031 RMK A01 T01060054  RH  070%=      5-min Rain = 0
KPG1 110147Z 03012KT 11/05 A3031 RMK A01 T01060053  RH  070%=      5-min Rain = 0
KPG1 110148Z 02012KT 11/05 A3031 RMK A01 T01060053  RH  069%=      5-min Rain = 0
KPG1 110149Z 02012KT 11/05 A3031 RMK A01 T01060052  RH  069%=      5-min Rain = 0
KPG1 110150Z 01013KT 11/05 A3031 RMK A01 T01060051  RH  069%=      5-min Rain = 0
KPG1 110151Z 01011KT 11/05 A3031 RMK A01 T01060050  RH  068%=      5-min Rain = 0
KPG1 110152Z 01013KT 11/05 A3032 RMK A01 T01070050  RH  068%=      5-min Rain = 0
KPG1 110153Z 01011KT 11/05 A3032 RMK A01 T01070050  RH  068%=      5-min Rain = 0
KPG1 110154Z 00011KT 11/05 A3032 RMK A01 T01070049  RH  067%=      5-min Rain = 0
KPG1 110155Z 00011KT 11/05 A3032 RMK A01 T01070050  RH  068%=      5-min Rain = 0
KPG1 110156Z 00013KT 11/05 A3032 RMK A01 T01070050  RH  068%=      5-min Rain = 0
KPG1 110157Z 00013KT 11/05 A3031 RMK A01 T01070050  RH  068%=      5-min Rain = 0
KPG1 110158Z 01013KT 11/05 A3031 RMK A01 T01060050  RH  068%=      5-min Rain = 0
KPG1 110159Z 01013KT 11/05 A3031 RMK A01 T01060050  RH  068%=      5-min Rain = 0
KPG1 110200Z 01012KT 11/05 A3031 RMK A01 T01060050  RH  068%=      5-min Rain = 0
KPG1 110201Z 01012KT 11/05 A3031 RMK A01 T01060050  RH  068%=      5-min Rain = 0
KPG1 110202Z 01011KT 11/05 A3031 RMK A01 T01060050  RH  068%=      5-min Rain = 0
KPG1 110203Z 01011KT 11/05 A3031 RMK A01 T01050050  RH  069%=      5-min Rain = 0
KPG1 110204Z 01012KT 10/05 A3031 RMK A01 T01040050  RH  069%=      5-min Rain = 0
KPG1 110205Z 01011KT 10/05 A3031 RMK A01 T01040050  RH  069%=      5-min Rain = 0
KPG1 110206Z 01011KT 10/05 A3031 RMK A01 T01040050  RH  069%=      5-min Rain = 0
KPG1 110207Z 01013KT 10/05 A3032 RMK A01 T01040050  RH  069%=      5-min Rain = 0
KPG1 110208Z 01011KT 10/05 A3032 RMK A01 T01040050  RH  069%=      5-min Rain = 0
KPG1 110209Z 01012KT 10/05 A3032 RMK A01 T01040050  RH  069%=      5-min Rain = 0
KPG1 110210Z 00012KT 10/05 A3032 RMK A01 T01030050  RH  069%=      5-min Rain = 0
KPG1 110211Z 01012KT 10/05 A3032 RMK A01 T01030050  RH  070%=      5-min Rain = 0
KPG1 110212Z 01012KT 10/05 A3032 RMK A01 T01030050  RH  069%=      5-min Rain = 0
KPG1 110213Z 00013KT 10/05 A3032 RMK A01 T01030050  RH  069%=      5-min Rain = 0
KPG1 110214Z 01012KT 10/05 A3032 RMK A01 T01030049  RH  069%=      5-min Rain = 0
KPG1 110215Z 01012KT 10/05 A3032 RMK A01 T01030049  RH  069%=      5-min Rain = 0
KPG1 110216Z 01011KT 10/05 A3032 RMK A01 T01030049  RH  069%=      5-min Rain = 0
KPG1 110217Z 01011KT 10/05 A3032 RMK A01 T01030049  RH  069%=      5-min Rain = 0
KPG1 110218Z 01012KT 10/05 A3032 RMK A01 T01020049  RH  069%=      5-min Rain = 0
KPG1 110219Z 01012KT 10/05 A3032 RMK A01 T01030049  RH  069%=      5-min Rain = 0
KPG1 110220Z 01011KT 10/05 A3032 RMK A01 T01030049  RH  069%=      5-min Rain = 0
KPG1 110221Z 00011KT 10/05 A3032 RMK A01 T01020049  RH  069%=      5-min Rain = 0
KPG1 110222Z 01011KT 10/05 A3032 RMK A01 T01020048  RH  069%=      5-min Rain = 0
KPG1 110223Z 01011KT 10/05 A3032 RMK A01 T01020048  RH  069%=      5-min Rain = 0
KPG1 110224Z 01010KT 10/05 A3032 RMK A01 T01020048  RH  069%=      5-min Rain = 0
KPG1 110225Z 02010KT 10/05 A3032 RMK A01 T01020048  RH  069%=      5-min Rain = 0
KPG1 110226Z 01012KT 10/05 A3032 RMK A01 T01020048  RH  069%=      5-min Rain = 0
KPG1 110227Z 01012KT 10/05 A3032 RMK A01 T01010047  RH  069%=      5-min Rain = 0
KPG1 110228Z 01013KT 10/05 A3032 RMK A01 T01010047  RH  069%=      5-min Rain = 0
KPG1 110229Z 01012KT 10/05 A3032 RMK A01 T01010047  RH  069%=      5-min Rain = 0
KPG1 110230Z 02010KT 10/05 A3032 RMK A01 T01010047  RH  069%=      5-min Rain = 0
KPG1 110231Z 02011KT 10/05 A3032 RMK A01 T01010047  RH  069%=      5-min Rain = 0
KPG1 110232Z 01011KT 10/05 A3032 RMK A01 T01000046  RH  069%=      5-min Rain = 0
KPG1 110233Z 02011KT 10/05 A3031 RMK A01 T01000047  RH  069%=      5-min Rain = 0
KPG1 110234Z 01011KT 10/05 A3031 RMK A01 T01000047  RH  069%=      5-min Rain = 0
KPG1 110235Z 01011KT 10/05 A3031 RMK A01 T01000047  RH  069%=      5-min Rain = 0
KPG1 110236Z 01011KT 10/05 A3031 RMK A01 T01000047  RH  069%=      5-min Rain = 0
KPG1 110237Z 02011KT 10/05 A3032 RMK A01 T00990046  RH  070%=      5-min Rain = 0
KPG1 110238Z 02012KT 10/05 A3032 RMK A01 T00990046  RH  069%=      5-min Rain = 0
KPG1 110239Z 02011KT 10/05 A3032 RMK A01 T01000046  RH  069%=      5-min Rain = 0
KPG1 110240Z 01011KT 10/05 A3032 RMK A01 T01000046  RH  069%=      5-min Rain = 0
KPG1 110241Z 01012KT 10/05 A3032 RMK A01 T01000046  RH  069%=      5-min Rain = 0
KPG1 110242Z 01011KT 10/05 A3032 RMK A01 T01000046  RH  069%=      5-min Rain = 0
KPG1 110243Z 01011KT 10/05 A3032 RMK A01 T01000046  RH  069%=      5-min Rain = 0
KPG1 110244Z 01011KT 10/05 A3032 RMK A01 T00990045  RH  069%=      5-min Rain = 0
KPG1 110245Z 01012KT 10/05 A3032 RMK A01 T00990045  RH  069%=      5-min Rain = 0
KPG1 110246Z 01011KT 10/05 A3032 RMK A01 T01000045  RH  069%=      5-min Rain = 0
KPG1 110247Z 02012KT 10/05 A3032 RMK A01 T01000045  RH  069%=      5-min Rain = 0
KPG1 110248Z 02010KT 10/05 A3032 RMK A01 T01000045  RH  069%=      5-min Rain = 0
KPG1 110249Z 02011KT 10/05 A3032 RMK A01 T00990045  RH  069%=      5-min Rain = 0
KPG1 110250Z 03009KT 10/05 A3032 RMK A01 T00990045  RH  069%=      5-min Rain = 0
KPG1 110251Z 01011KT 10/05 A3032 RMK A01 T00980045  RH  070%=      5-min Rain = 0
KPG1 110252Z 01011KT 10/05 A3032 RMK A01 T00970045  RH  070%=      5-min Rain = 0
KPG1 110253Z 01011KT 10/05 A3032 RMK A01 T00980045  RH  069%=      5-min Rain = 0
KPG1 110254Z 02012KT 10/04 A3032 RMK A01 T00990044  RH  069%=      5-min Rain = 0
KPG1 110255Z 02011KT 10/05 A3032 RMK A01 T01000045  RH  069%=      5-min Rain = 0
KPG1 110256Z 01010KT 10/05 A3032 RMK A01 T01000045  RH  069%=      5-min Rain = 0
KPG1 110257Z 02011KT 10/05 A3032 RMK A01 T00990045  RH  069%=      5-min Rain = 0
KPG1 110258Z 02011KT 10/04 A3032 RMK A01 T00980044  RH  069%=      5-min Rain = 0
KPG1 110259Z 02010KT 10/04 A3032 RMK A01 T00980044  RH  069%=      5-min Rain = 0
KPG1 110300Z 02011KT 10/05 A3032 RMK A01 T00980045  RH  069%=      5-min Rain = 0
KPG1 110301Z 02013KT 10/04 A3032 RMK A01 T00980044  RH  069%=      5-min Rain = 0
KPG1 110302Z 02012KT 10/04 A3032 RMK A01 T00980044  RH  069%=      5-min Rain = 0
KPG1 110303Z 02011KT 10/04 A3032 RMK A01 T00980044  RH  069%=      5-min Rain = 0
KPG1 110304Z 02011KT 10/04 A3032 RMK A01 T00980044  RH  069%=      5-min Rain = 0
KPG1 110305Z 02010KT 10/05 A3032 RMK A01 T00980045  RH  070%=      5-min Rain = 0
KPG1 110306Z 02011KT 10/05 A3032 RMK A01 T00970045  RH  070%=      5-min Rain = 0
KPG1 110307Z 02011KT 10/04 A3032 RMK A01 T00960044  RH  070%=      5-min Rain = 0
KPG1 110308Z 02010KT 10/04 A3032 RMK A01 T00970044  RH  070%=      5-min Rain = 0
KPG1 110309Z 02011KT 10/04 A3032 RMK A01 T00970044  RH  070%=      5-min Rain = 0
KPG1 110310Z 01012KT 10/04 A3032 RMK A01 T00970044  RH  070%=      5-min Rain = 0
KPG1 110311Z 01012KT 10/04 A3032 RMK A01 T00970044  RH  069%=      5-min Rain = 0
KPG1 110312Z 01012KT 10/04 A3032 RMK A01 T00970043  RH  069%=      5-min Rain = 0
KPG1 110313Z 01012KT 10/04 A3032 RMK A01 T00980043  RH  069%=      5-min Rain = 0
KPG1 110314Z 01011KT 10/04 A3032 RMK A01 T00980043  RH  069%=      5-min Rain = 0
KPG1 110315Z 02012KT 10/04 A3032 RMK A01 T00980043  RH  068%=      5-min Rain = 0
KPG1 110316Z 02012KT 10/04 A3032 RMK A01 T00980043  RH  069%=      5-min Rain = 0
KPG1 110317Z 02013KT 10/04 A3032 RMK A01 T00980044  RH  069%=      5-min Rain = 0
KPG1 110318Z 01012KT 10/04 A3032 RMK A01 T00980043  RH  069%=      5-min Rain = 0
KPG1 110319Z 02011KT 10/04 A3032 RMK A01 T00980043  RH  069%=      5-min Rain = 0
KPG1 110320Z 01010KT 10/04 A3032 RMK A01 T00980043  RH  069%=      5-min Rain = 0
KPG1 110321Z 02011KT 10/04 A3032 RMK A01 T00980043  RH  069%=      5-min Rain = 0
KPG1 110322Z 01011KT 10/04 A3032 RMK A01 T00980043  RH  069%=      5-min Rain = 0
KPG1 110323Z 02012KT 10/04 A3032 RMK A01 T00970043  RH  069%=      5-min Rain = 0
KPG1 110324Z 02012KT 10/04 A3032 RMK A01 T00970043  RH  069%=      5-min Rain = 0
KPG1 110325Z 02011KT 10/04 A3032 RMK A01 T00970043  RH  069%=      5-min Rain = 0
KPG1 110326Z 02010KT 10/04 A3032 RMK A01 T00970043  RH  069%=      5-min Rain = 0
KPG1 110327Z 03011KT 10/04 A3032 RMK A01 T00950043  RH  070%=      5-min Rain = 0
KPG1 110328Z 02012KT 09/04 A3032 RMK A01 T00940043  RH  071%=      5-min Rain = 0
KPG1 110329Z 02011KT 09/04 A3032 RMK A01 T00930043  RH  071%=      5-min Rain = 0
KPG1 110330Z 02011KT 09/04 A3032 RMK A01 T00930043  RH  071%=      5-min Rain = 0
KPG1 110331Z 02010KT 09/04 A3032 RMK A01 T00930043  RH  071%=      5-min Rain = 0
KPG1 110332Z 02010KT 09/04 A3032 RMK A01 T00930043  RH  071%=      5-min Rain = 0
KPG1 110333Z 02012KT 09/04 A3032 RMK A01 T00930044  RH  071%=      5-min Rain = 0
KPG1 110334Z 02012KT 09/04 A3032 RMK A01 T00930043  RH  071%=      5-min Rain = 0
KPG1 110335Z 02011KT 09/04 A3032 RMK A01 T00940043  RH  071%=      5-min Rain = 0
KPG1 110336Z 02013KT 10/04 A3032 RMK A01 T00950043  RH  070%=      5-min Rain = 0
KPG1 110337Z 02014KT 10/04 A3032 RMK A01 T00950043  RH  070%=      5-min Rain = 0
KPG1 110338Z 02013KT 10/04 A3032 RMK A01 T00950043  RH  070%=      5-min Rain = 0
KPG1 110339Z 02012KT 09/04 A3032 RMK A01 T00930043  RH  071%=      5-min Rain = 0
KPG1 110340Z 02013KT 09/04 A3032 RMK A01 T00920043  RH  072%=      5-min Rain = 0
KPG1 110341Z 02014KT 09/04 A3032 RMK A01 T00900043  RH  072%=      5-min Rain = 0
KPG1 110342Z 02013KT 09/04 A3032 RMK A01 T00900043  RH  072%=      5-min Rain = 0
KPG1 110343Z 02011KT 09/04 A3032 RMK A01 T00890043  RH  073%=      5-min Rain = 0
KPG1 110344Z 02011KT 09/04 A3032 RMK A01 T00890043  RH  073%=      5-min Rain = 0
KPG1 110345Z 02013KT 09/04 A3032 RMK A01 T00890043  RH  073%=      5-min Rain = 0
KPG1 110346Z 02012KT 09/04 A3032 RMK A01 T00920043  RH  072%=      5-min Rain = 0
KPG1 110347Z 01014KT 09/04 A3032 RMK A01 T00930043  RH  071%=      5-min Rain = 0
KPG1 110348Z 02014KT 09/04 A3032 RMK A01 T00940042  RH  070%=      5-min Rain = 0
KPG1 110349Z 03012KT 10/04 A3032 RMK A01 T00950042  RH  070%=      5-min Rain = 0
KPG1 110350Z 02012KT 09/04 A3032 RMK A01 T00940042  RH  070%=      5-min Rain = 0
KPG1 110351Z 02012KT 09/04 A3032 RMK A01 T00940042  RH  070%=      5-min Rain = 0
KPG1 110352Z 02012KT 09/04 A3032 RMK A01 T00930042  RH  070%=      5-min Rain = 0
KPG1 110353Z 02012KT 09/04 A3032 RMK A01 T00940042  RH  070%=      5-min Rain = 0
KPG1 110354Z 02012KT 09/04 A3032 RMK A01 T00940042  RH  070%=      5-min Rain = 0
KPG1 110355Z 02011KT 09/04 A3032 RMK A01 T00940042  RH  070%=      5-min Rain = 0
KPG1 110356Z 02012KT 09/04 A3032 RMK A01 T00940041  RH  070%=      5-min Rain = 0
KPG1 110357Z 02012KT 10/04 A3032 RMK A01 T00950041  RH  069%=      5-min Rain = 0
KPG1 110358Z 02011KT 10/04 A3032 RMK A01 T00950041  RH  069%=      5-min Rain = 0
KPG1 110359Z 02012KT 10/04 A3032 RMK A01 T00950041  RH  069%=      5-min Rain = 0
KPG1 110400Z 02011KT 10/04 A3032 RMK A01 T00950041  RH  069%=      5-min Rain = 0
KPG1 110401Z 02012KT 09/04 A3032 RMK A01 T00940041  RH  070%=      5-min Rain = 0
KPG1 110402Z 02012KT 09/04 A3032 RMK A01 T00940041  RH  070%=      5-min Rain = 0
KPG1 110403Z 02012KT 09/04 A3032 RMK A01 T00930042  RH  071%=      5-min Rain = 0
KPG1 110404Z 02013KT 09/04 A3032 RMK A01 T00920042  RH  071%=      5-min Rain = 0
KPG1 110405Z 02012KT 09/04 A3032 RMK A01 T00920042  RH  071%=      5-min Rain = 0
KPG1 110406Z 02013KT 09/04 A3032 RMK A01 T00920042  RH  071%=      5-min Rain = 0
KPG1 110407Z 02014KT 09/04 A3032 RMK A01 T00920041  RH  071%=      5-min Rain = 0
KPG1 110408Z 02013KT 09/04 A3032 RMK A01 T00930042  RH  070%=      5-min Rain = 0
KPG1 110409Z 02013KT 09/04 A3032 RMK A01 T00930041  RH  070%=      5-min Rain = 0
KPG1 110410Z 02013KT 09/04 A3032 RMK A01 T00930041  RH  070%=      5-min Rain = 0
KPG1 110411Z 02013KT 09/04 A3032 RMK A01 T00930041  RH  070%=      5-min Rain = 0
KPG1 110412Z 01012KT 09/04 A3032 RMK A01 T00930041  RH  070%=      5-min Rain = 0
KPG1 110413Z 02012KT 09/04 A3032 RMK A01 T00930041  RH  070%=      5-min Rain = 0
KPG1 110414Z 01011KT 09/04 A3032 RMK A01 T00930040  RH  070%=      5-min Rain = 0
KPG1 110415Z 02012KT 09/04 A3032 RMK A01 T00940041  RH  070%=      5-min Rain = 0
KPG1 110416Z 02012KT 09/04 A3032 RMK A01 T00930041  RH  070%=      5-min Rain = 0
KPG1 110417Z 02012KT 09/04 A3032 RMK A01 T00930041  RH  070%=      5-min Rain = 0
KPG1 110418Z 02011KT 09/04 A3032 RMK A01 T00930041  RH  070%=      5-min Rain = 0
KPG1 110419Z 02013KT 09/04 A3032 RMK A01 T00920041  RH  070%=      5-min Rain = 0
KPG1 110420Z 02014KT 09/04 A3032 RMK A01 T00920041  RH  070%=      5-min Rain = 0
KPG1 110421Z 02013KT 09/04 A3032 RMK A01 T00920040  RH  070%=      5-min Rain = 0
KPG1 110422Z 02013KT 09/04 A3032 RMK A01 T00920040  RH  070%=      5-min Rain = 0
KPG1 110423Z 02014KT 09/04 A3032 RMK A01 T00930040  RH  070%=      5-min Rain = 0
KPG1 110424Z 02014KT 09/04 A3032 RMK A01 T00930040  RH  070%=      5-min Rain = 0
KPG1 110425Z 02014KT 09/04 A3032 RMK A01 T00930040  RH  070%=      5-min Rain = 0
KPG1 110426Z 02013KT 09/04 A3032 RMK A01 T00930040  RH  070%=      5-min Rain = 0
KPG1 110427Z 02012KT 09/04 A3032 RMK A01 T00920040  RH  070%=      5-min Rain = 0
KPG1 110428Z 02014KT 09/04 A3032 RMK A01 T00930040  RH  070%=      5-min Rain = 0
KPG1 110429Z 02014KT 09/04 A3032 RMK A01 T00930040  RH  070%=      5-min Rain = 0
KPG1 110430Z 02013KT 09/04 A3032 RMK A01 T00920040  RH  070%=      5-min Rain = 0
KPG1 110431Z 02013KT 09/04 A3032 RMK A01 T00920040  RH  070%=      5-min Rain = 0
KPG1 110432Z 02013KT 09/04 A3032 RMK A01 T00930040  RH  070%=      5-min Rain = 0
KPG1 110433Z 02013KT 09/04 A3032 RMK A01 T00920040  RH  070%=      5-min Rain = 0
KPG1 110434Z 02014KT 09/04 A3032 RMK A01 T00930040  RH  070%=      5-min Rain = 0
KPG1 110435Z 02013KT 09/04 A3032 RMK A01 T00920040  RH  070%=      5-min Rain = 0
KPG1 110436Z 02011KT 09/04 A3032 RMK A01 T00920040  RH  070%=      5-min Rain = 0
KPG1 110437Z 02012KT 09/04 A3032 RMK A01 T00910040  RH  071%=      5-min Rain = 0
KPG1 110438Z 02013KT 09/04 A3032 RMK A01 T00900040  RH  071%=      5-min Rain = 0
KPG1 110439Z 02012KT 09/04 A3032 RMK A01 T00900040  RH  071%=      5-min Rain = 0
KPG1 110440Z 02013KT 09/04 A3032 RMK A01 T00900040  RH  071%=      5-min Rain = 0
KPG1 110441Z 01011KT 09/04 A3032 RMK A01 T00910040  RH  070%=      5-min Rain = 0
KPG1 110442Z 02013KT 09/04 A3032 RMK A01 T00910040  RH  070%=      5-min Rain = 0
KPG1 110443Z 02010KT 09/04 A3033 RMK A01 T00910040  RH  070%=      5-min Rain = 0
KPG1 110444Z 02010KT 09/04 A3033 RMK A01 T00910040  RH  071%=      5-min Rain = 0
KPG1 110445Z 02012KT 09/04 A3033 RMK A01 T00890040  RH  071%=      5-min Rain = 0
KPG1 110446Z 02010KT 09/04 A3033 RMK A01 T00890040  RH  071%=      5-min Rain = 0
KPG1 110447Z 02010KT 09/04 A3033 RMK A01 T00890040  RH  071%=      5-min Rain = 0
KPG1 110448Z 02012KT 09/04 A3033 RMK A01 T00890040  RH  071%=      5-min Rain = 0
KPG1 110449Z 02011KT 09/04 A3033 RMK A01 T00900040  RH  071%=      5-min Rain = 0
KPG1 110450Z 02012KT 09/04 A3033 RMK A01 T00900040  RH  071%=      5-min Rain = 0
KPG1 110451Z 02012KT 09/04 A3033 RMK A01 T00900040  RH  071%=      5-min Rain = 0
KPG1 110452Z 02011KT 09/04 A3033 RMK A01 T00890040  RH  071%=      5-min Rain = 0
KPG1 110453Z 02011KT 09/04 A3033 RMK A01 T00890040  RH  072%=      5-min Rain = 0
KPG1 110454Z 02011KT 09/04 A3033 RMK A01 T00880040  RH  072%=      5-min Rain = 0
KPG1 110455Z 02012KT 09/04 A3032 RMK A01 T00890040  RH  071%=      5-min Rain = 0
KPG1 110456Z 03012KT 09/04 A3032 RMK A01 T00890039  RH  071%=      5-min Rain = 0
KPG1 110457Z 02011KT 09/04 A3032 RMK A01 T00870040  RH  072%=      5-min Rain = 0
KPG1 110458Z 02013KT 09/04 A3032 RMK A01 T00860040  RH  073%=      5-min Rain = 0
KPG1 110459Z 02012KT 09/04 A3032 RMK A01 T00870040  RH  072%=      5-min Rain = 0
KPG1 110500Z 02011KT 09/04 A3032 RMK A01 T00870040  RH  072%=      5-min Rain = 0
KPG1 110501Z 02012KT 09/04 A3032 RMK A01 T00860040  RH  073%=      5-min Rain = 0
KPG1 110502Z 02012KT 09/04 A3032 RMK A01 T00870040  RH  072%=      5-min Rain = 0
KPG1 110503Z 02012KT 09/04 A3032 RMK A01 T00880040  RH  072%=      5-min Rain = 0
KPG1 110504Z 02013KT 09/04 A3032 RMK A01 T00880040  RH  072%=      5-min Rain = 0
KPG1 110505Z 02012KT 09/04 A3032 RMK A01 T00890039  RH  071%=      5-min Rain = 0
KPG1 110506Z 02012KT 09/04 A3032 RMK A01 T00900039  RH  071%=      5-min Rain = 0
KPG1 110507Z 02012KT 09/04 A3032 RMK A01 T00900039  RH  070%=      5-min Rain = 0
KPG1 110508Z 02012KT 09/04 A3032 RMK A01 T00910039  RH  070%=      5-min Rain = 0
KPG1 110509Z 01012KT 09/04 A3032 RMK A01 T00910038  RH  070%=      5-min Rain = 0
KPG1 110510Z 02012KT 09/04 A3033 RMK A01 T00910039  RH  070%=      5-min Rain = 0
KPG1 110511Z 02012KT 09/04 A3033 RMK A01 T00910039  RH  070%=      5-min Rain = 0
KPG1 110512Z 02011KT 09/04 A3033 RMK A01 T00890039  RH  071%=      5-min Rain = 0
KPG1 110513Z 02012KT 09/04 A3033 RMK A01 T00880039  RH  071%=      5-min Rain = 0
KPG1 110514Z 02012KT 09/04 A3033 RMK A01 T00870039  RH  072%=      5-min Rain = 0
KPG1 110515Z 02012KT 09/04 A3033 RMK A01 T00870039  RH  072%=      5-min Rain = 0
KPG1 110516Z 01011KT 09/04 A3033 RMK A01 T00860039  RH  072%=      5-min Rain = 0
KPG1 110517Z 02011KT 09/04 A3033 RMK A01 T00860039  RH  073%=      5-min Rain = 0
KPG1 110518Z 02010KT 09/04 A3033 RMK A01 T00870040  RH  072%=      5-min Rain = 0
KPG1 110519Z 02010KT 09/04 A3033 RMK A01 T00870040  RH  072%=      5-min Rain = 0
KPG1 110520Z 03010KT 09/04 A3032 RMK A01 T00850040  RH  073%=      5-min Rain = 0
KPG1 110521Z 03010KT 08/04 A3032 RMK A01 T00840040  RH  074%=      5-min Rain = 0
KPG1 110522Z 03012KT 08/04 A3032 RMK A01 T00820040  RH  075%=      5-min Rain = 0
KPG1 110523Z 03012KT 08/04 A3032 RMK A01 T00810040  RH  076%=      5-min Rain = 0
KPG1 110524Z 03012KT 08/04 A3032 RMK A01 T00810041  RH  076%=      5-min Rain = 0
KPG1 110525Z 03011KT 08/04 A3032 RMK A01 T00800041  RH  076%=      5-min Rain = 0
KPG1 110526Z 02011KT 08/04 A3032 RMK A01 T00800041  RH  076%=      5-min Rain = 0
KPG1 110527Z 02011KT 08/04 A3032 RMK A01 T00810041  RH  076%=      5-min Rain = 0
KPG1 110528Z 02010KT 08/04 A3032 RMK A01 T00840041  RH  074%=      5-min Rain = 0
KPG1 110529Z 02011KT 09/04 A3032 RMK A01 T00850041  RH  074%=      5-min Rain = 0
KPG1 110530Z 01011KT 09/04 A3032 RMK A01 T00860041  RH  073%=      5-min Rain = 0
KPG1 110531Z 02009KT 09/04 A3032 RMK A01 T00860040  RH  073%=      5-min Rain = 0
KPG1 110532Z 02011KT 09/04 A3032 RMK A01 T00860040  RH  073%=      5-min Rain = 0
KPG1 110533Z 02011KT 09/04 A3032 RMK A01 T00870040  RH  072%=      5-min Rain = 0
KPG1 110534Z 02011KT 09/04 A3032 RMK A01 T00880039  RH  071%=      5-min Rain = 0
KPG1 110535Z 03009KT 09/04 A3032 RMK A01 T00890040  RH  072%=      5-min Rain = 0
KPG1 110536Z 03010KT 09/04 A3032 RMK A01 T00850040  RH  073%=      5-min Rain = 0
KPG1 110537Z 02010KT 08/04 A3032 RMK A01 T00830040  RH  074%=      5-min Rain = 0
KPG1 110538Z 03009KT 08/04 A3032 RMK A01 T00820040  RH  075%=      5-min Rain = 0
KPG1 110539Z 04009KT 08/04 A3032 RMK A01 T00820040  RH  075%=      5-min Rain = 0
KPG1 110540Z 03009KT 08/04 A3032 RMK A01 T00820041  RH  075%=      5-min Rain = 0
KPG1 110541Z 03009KT 08/04 A3032 RMK A01 T00810041  RH  076%=      5-min Rain = 0
KPG1 110542Z 03009KT 08/04 A3032 RMK A01 T00810041  RH  076%=      5-min Rain = 0
KPG1 110543Z 02010KT 08/04 A3032 RMK A01 T00810041  RH  076%=      5-min Rain = 0
KPG1 110544Z 02010KT 08/04 A3032 RMK A01 T00810041  RH  076%=      5-min Rain = 0
KPG1 110545Z 02010KT 08/04 A3032 RMK A01 T00820041  RH  075%=      5-min Rain = 0
KPG1 110546Z 02010KT 09/04 A3032 RMK A01 T00860041  RH  073%=      5-min Rain = 0
KPG1 110547Z 02009KT 09/04 A3032 RMK A01 T00870040  RH  072%=      5-min Rain = 0
KPG1 110548Z 02008KT 09/04 A3032 RMK A01 T00890040  RH  071%=      5-min Rain = 0
KPG1 110549Z 03007KT 09/04 A3032 RMK A01 T00890040  RH  072%=      5-min Rain = 0
KPG1 110550Z 03008KT 09/04 A3032 RMK A01 T00860040  RH  073%=      5-min Rain = 0
KPG1 110551Z 04009KT 08/04 A3032 RMK A01 T00840040  RH  074%=      5-min Rain = 0
KPG1 110552Z 04009KT 08/04 A3032 RMK A01 T00820041  RH  075%=      5-min Rain = 0
KPG1 110553Z 03008KT 08/04 A3032 RMK A01 T00820041  RH  075%=      5-min Rain = 0
KPG1 110554Z 03009KT 08/04 A3032 RMK A01 T00810041  RH  076%=      5-min Rain = 0
KPG1 110555Z 03010KT 08/04 A3032 RMK A01 T00810041  RH  076%=      5-min Rain = 0
KPG1 110556Z 03009KT 08/04 A3032 RMK A01 T00830041  RH  075%=      5-min Rain = 0
KPG1 110557Z 02009KT 08/04 A3032 RMK A01 T00840041  RH  074%=      5-min Rain = 0
KPG1 110558Z 03009KT 08/04 A3032 RMK A01 T00840040  RH  074%=      5-min Rain = 0
KPG1 110559Z 03009KT 08/04 A3032 RMK A01 T00840041  RH  074%=      5-min Rain = 0
KPG1 110600Z 03009KT 08/04 A3032 RMK A01 T00830041  RH  075%=      5-min Rain = 0

Page generated in 0.0337 seconds.